Time,TemperatureF,DewpointF,PressureIn,WindDirection,WindDirectionDegrees,WindSpeedMPH,WindSpeedGustMPH,Humidity,HourlyPrecipIn,Conditions,Clouds,dailyrainin,SoftwareType,DateUTC
2013-05-30 00:00:00,77.5,72.6,30.06,ENE,72,1.0,5.0,85,0.00,,---,0.11,VWS V14.01,2013-05-30 04:00:00,
2013-05-30 00:01:00,77.4,72.5,30.06,ENE,72,1.0,5.0,85,0.00,,---,0.11,VWS V14.01,2013-05-30 04:01:00,
2013-05-30 00:06:00,77.4,72.5,30.07,East,79,2.0,2.0,85,0.00,,---,0.00,VWS V14.01,2013-05-30 04:06:00,
2013-05-30 00:07:00,77.4,72.5,30.07,NE,54,1.0,3.0,85,0.00,,---,0.00,VWS V14.01,2013-05-30 04:07:00,
2013-05-30 00:08:00,77.4,72.5,30.07,ENE,75,3.0,4.0,85,0.00,,---,0.00,VWS V14.01,2013-05-30 04:08:00,
2013-05-30 00:10:00,77.3,72.4,30.07,ENE,77,2.0,6.0,85,0.00,,---,0.00,VWS V14.01,2013-05-30 04:10:00,
2013-05-30 00:12:00,77.4,72.5,30.07,ENE,65,3.0,4.0,85,0.00,,---,0.00,VWS V14.01,2013-05-30 04:12:00,
2013-05-30 00:14:00,77.4,72.5,30.07,NE,47,6.0,6.0,85,0.00,,---,0.00,VWS V14.01,2013-05-30 04:14:00,
2013-05-30 00:15:00,77.4,72.5,30.07,NE,44,2.0,6.0,85,0.00,,---,0.00,VWS V14.01,2013-05-30 04:15:00,
2013-05-30 00:17:00,77.3,72.4,30.07,ENE,76,2.0,7.0,85,0.00,,---,0.00,VWS V14.01,2013-05-30 04:17:00,
2013-05-30 00:19:00,77.4,72.5,30.07,ENE,69,1.0,7.0,85,0.00,,---,0.00,VWS V14.01,2013-05-30 04:19:00,
2013-05-30 00:20:00,77.3,72.4,30.07,ENE,71,2.0,7.0,85,0.00,,---,0.00,VWS V14.01,2013-05-30 04:20:00,
2013-05-30 00:22:00,77.3,72.4,30.07,NE,53,2.0,2.0,85,0.00,,---,0.00,VWS V14.01,2013-05-30 04:22:00,
2013-05-30 00:23:00,77.3,72.4,30.07,East,88,3.0,3.0,85,0.00,,---,0.00,VWS V14.01,2013-05-30 04:23:00,
2013-05-30 00:24:00,77.3,72.4,30.07,East,90,11.0,12.0,85,0.00,,---,0.00,VWS V14.01,2013-05-30 04:24:00,
2013-05-30 00:26:00,77.3,72.4,30.07,East,80,3.0,12.0,85,0.00,,---,0.00,VWS V14.01,2013-05-30 04:26:00,
2013-05-30 00:28:00,77.2,72.7,30.07,East,94,2.0,5.0,86,0.00,,---,0.00,VWS V14.01,2013-05-30 04:28:00,
2013-05-30 00:31:00,77.2,72.7,30.06,ESE,106,1.0,5.0,86,0.00,,---,0.00,VWS V14.01,2013-05-30 04:31:00,
2013-05-30 00:33:00,77.2,72.7,30.06,NE,51,3.0,7.0,86,0.00,,---,0.00,VWS V14.01,2013-05-30 04:33:00,
2013-05-30 00:34:00,77.2,72.7,30.06,SE,146,1.0,7.0,86,0.00,,---,0.00,VWS V14.01,2013-05-30 04:34:00,
2013-05-30 00:35:00,77.2,72.7,30.07,ESE,114,0.0,7.0,86,0.00,,---,0.00,VWS V14.01,2013-05-30 04:35:00,
2013-05-30 00:36:00,77.2,72.7,30.07,NNE,28,4.0,4.0,86,0.00,,---,0.00,VWS V14.01,2013-05-30 04:36:00,
2013-05-30 00:39:00,77.2,72.7,30.07,NE,46,4.0,7.0,86,0.00,,---,0.00,VWS V14.01,2013-05-30 04:39:00,
2013-05-30 00:40:00,77.1,72.6,30.07,NNE,28,4.0,7.0,86,0.00,,---,0.00,VWS V14.01,2013-05-30 04:40:00,
2013-05-30 00:43:00,77.1,72.6,30.07,ENE,59,2.0,8.0,86,0.00,,---,0.00,VWS V14.01,2013-05-30 04:43:00,
2013-05-30 00:44:00,77.1,72.6,30.07,East,89,2.0,8.0,86,0.00,,---,0.00,VWS V14.01,2013-05-30 04:44:00,
2013-05-30 00:46:00,77.0,72.5,30.07,East,86,3.0,8.0,86,0.00,,---,0.00,VWS V14.01,2013-05-30 04:46:00,
2013-05-30 00:48:00,77.0,72.5,30.07,ENE,63,4.0,9.0,86,0.00,,---,0.00,VWS V14.01,2013-05-30 04:48:00,
2013-05-30 00:51:00,76.9,72.4,30.06,East,88,3.0,9.0,86,0.00,,---,0.00,VWS V14.01,2013-05-30 04:51:00,
2013-05-30 00:52:00,76.9,72.4,30.07,NNE,33,3.0,5.0,86,0.00,,---,0.00,VWS V14.01,2013-05-30 04:52:00,
2013-05-30 00:54:00,76.9,72.4,30.06,NE,49,5.0,6.0,86,0.00,,---,0.00,VWS V14.01,2013-05-30 04:54:00,
2013-05-30 00:56:00,76.9,72.4,30.06,ENE,57,4.0,7.0,86,0.00,,---,0.00,VWS V14.01,2013-05-30 04:56:00,
2013-05-30 00:57:00,76.9,72.4,30.06,ENE,69,2.0,6.0,86,0.00,,---,0.00,VWS V14.01,2013-05-30 04:57:00,
2013-05-30 00:58:00,76.9,72.4,30.07,NE,36,4.0,6.0,86,0.00,,---,0.00,VWS V14.01,2013-05-30 04:58:00,
2013-05-30 01:01:00,76.9,72.4,30.06,ENE,57,2.0,11.0,86,0.00,,---,0.00,VWS V14.01,2013-05-30 05:01:00,
2013-05-30 01:02:00,76.9,72.4,30.06,ENE,78,2.0,4.0,86,0.00,,---,0.00,VWS V14.01,2013-05-30 05:02:00,
2013-05-30 01:04:00,76.9,72.4,30.07,ENE,57,3.0,6.0,86,0.00,,---,0.00,VWS V14.01,2013-05-30 05:04:00,
2013-05-30 01:06:00,76.9,72.7,30.07,ENE,63,1.0,2.0,87,0.00,,---,0.00,VWS V14.01,2013-05-30 05:06:00,
2013-05-30 01:07:00,76.9,72.7,30.07,NE,48,3.0,3.0,87,0.00,,---,0.00,VWS V14.01,2013-05-30 05:07:00,
2013-05-30 01:11:00,76.8,72.6,30.07,East,96,2.0,2.0,87,0.00,,---,0.00,VWS V14.01,2013-05-30 05:11:00,
2013-05-30 01:12:00,76.8,72.6,30.07,East,92,3.0,3.0,87,0.00,,---,0.00,VWS V14.01,2013-05-30 05:12:00,
2013-05-30 01:14:00,76.8,72.6,30.06,NE,45,2.0,3.0,87,0.00,,---,0.00,VWS V14.01,2013-05-30 05:14:00,
2013-05-30 01:17:00,76.8,72.6,30.06,East,101,5.0,7.0,87,0.00,,---,0.00,VWS V14.01,2013-05-30 05:17:00,
2013-05-30 01:18:00,76.8,72.6,30.06,East,98,3.0,7.0,87,0.00,,---,0.00,VWS V14.01,2013-05-30 05:18:00,
2013-05-30 01:19:00,76.8,72.6,30.06,NNE,23,1.0,7.0,87,0.00,,---,0.00,VWS V14.01,2013-05-30 05:19:00,
2013-05-30 01:23:00,76.8,72.6,30.06,East,97,1.0,5.0,87,0.00,,---,0.00,VWS V14.01,2013-05-30 05:23:00,
2013-05-30 01:24:00,76.8,72.6,30.06,ENE,66,7.0,7.0,87,0.00,,---,0.00,VWS V14.01,2013-05-30 05:24:00,
2013-05-30 01:25:00,76.8,72.6,30.06,ENE,65,3.0,7.0,87,0.00,,---,0.00,VWS V14.01,2013-05-30 05:25:00,
2013-05-30 01:28:00,76.8,72.6,30.06,ENE,63,4.0,5.0,87,0.00,,---,0.00,VWS V14.01,2013-05-30 05:28:00,
2013-05-30 01:30:00,76.8,72.6,30.06,ESE,115,2.0,10.0,87,0.00,,---,0.00,VWS V14.01,2013-05-30 05:30:00,
2013-05-30 01:31:00,76.8,72.6,30.06,ESE,115,2.0,10.0,87,0.00,,---,0.00,VWS V14.01,2013-05-30 05:31:00,
2013-05-30 01:34:00,76.7,72.5,30.06,ENE,74,2.0,8.0,87,0.00,,---,0.00,VWS V14.01,2013-05-30 05:34:00,
2013-05-30 01:35:00,76.7,72.5,30.06,East,96,1.0,8.0,87,0.00,,---,0.00,VWS V14.01,2013-05-30 05:35:00,
2013-05-30 01:36:00,76.7,72.5,30.06,NE,53,1.0,8.0,87,0.00,,---,0.00,VWS V14.01,2013-05-30 05:36:00,
2013-05-30 01:37:00,76.7,72.5,30.06,NNE,28,2.0,2.0,87,0.00,,---,0.00,VWS V14.01,2013-05-30 05:37:00,
2013-05-30 01:39:00,76.7,72.5,30.05,East,94,2.0,4.0,87,0.00,,---,0.00,VWS V14.01,2013-05-30 05:39:00,
2013-05-30 01:41:00,76.7,72.5,30.06,NE,45,2.0,5.0,87,0.00,,---,0.00,VWS V14.01,2013-05-30 05:41:00,
2013-05-30 01:43:00,76.6,72.4,30.06,ENE,59,4.0,5.0,87,0.00,,---,0.00,VWS V14.01,2013-05-30 05:43:00,
2013-05-30 01:45:00,76.7,72.5,30.05,ESE,108,2.0,6.0,87,0.00,,---,0.00,VWS V14.01,2013-05-30 05:45:00,
2013-05-30 01:47:00,76.6,72.4,30.06,East,100,1.0,3.0,87,0.00,,---,0.00,VWS V14.01,2013-05-30 05:47:00,
2013-05-30 01:49:00,76.6,72.8,30.06,ENE,70,2.0,5.0,88,0.00,,---,0.00,VWS V14.01,2013-05-30 05:49:00,
2013-05-30 01:50:00,76.6,72.8,30.06,NE,43,2.0,5.0,88,0.00,,---,0.00,VWS V14.01,2013-05-30 05:50:00,
2013-05-30 01:52:00,76.6,72.8,30.06,ENE,76,2.0,3.0,88,0.00,,---,0.00,VWS V14.01,2013-05-30 05:52:00,
2013-05-30 01:54:00,76.6,72.8,30.06,ENE,67,4.0,5.0,88,0.00,,---,0.00,VWS V14.01,2013-05-30 05:54:00,
2013-05-30 01:56:00,76.6,72.8,30.06,ENE,61,3.0,5.0,88,0.00,,---,0.00,VWS V14.01,2013-05-30 05:56:00,
2013-05-30 01:57:00,76.6,72.8,30.06,NE,42,4.0,4.0,88,0.00,,---,0.00,VWS V14.01,2013-05-30 05:57:00,
2013-05-30 01:58:00,76.6,72.8,30.06,ENE,68,1.0,4.0,88,0.00,,---,0.00,VWS V14.01,2013-05-30 05:58:00,
2013-05-30 01:59:00,76.6,72.8,30.06,ENE,76,4.0,5.0,88,0.00,,---,0.00,VWS V14.01,2013-05-30 05:59:00,
2013-05-30 02:01:00,76.6,72.8,30.05,NNE,29,4.0,5.0,88,0.00,,---,0.00,VWS V14.01,2013-05-30 06:01:00,
2013-05-30 02:03:00,76.6,72.8,30.06,ESE,107,2.0,8.0,88,0.00,,---,0.00,VWS V14.01,2013-05-30 06:03:00,
2013-05-30 02:05:00,76.6,72.8,30.05,NE,44,2.0,8.0,88,0.00,,---,0.00,VWS V14.01,2013-05-30 06:05:00,
2013-05-30 02:07:00,76.6,72.8,30.05,East,85,3.0,9.0,88,0.00,,---,0.00,VWS V14.01,2013-05-30 06:07:00,
2013-05-30 02:08:00,76.6,72.8,30.05,ENE,62,4.0,9.0,88,0.00,,---,0.00,VWS V14.01,2013-05-30 06:08:00,
2013-05-30 02:09:00,76.5,72.7,30.05,East,96,0.0,9.0,88,0.00,,---,0.00,VWS V14.01,2013-05-30 06:09:00,
2013-05-30 02:10:00,76.5,72.7,30.05,NE,34,2.0,9.0,88,0.00,,---,0.00,VWS V14.01,2013-05-30 06:10:00,
2013-05-30 02:13:00,76.5,72.7,30.05,East,99,2.0,6.0,88,0.00,,---,0.00,VWS V14.01,2013-05-30 06:13:00,
2013-05-30 02:14:00,76.5,72.7,30.05,East,87,1.0,6.0,88,0.00,,---,0.00,VWS V14.01,2013-05-30 06:14:00,
2013-05-30 02:16:00,76.4,72.6,30.05,ESE,121,2.0,6.0,88,0.00,,---,0.00,VWS V14.01,2013-05-30 06:16:00,
2013-05-30 02:17:00,76.4,72.6,30.05,SSE,161,3.0,5.0,88,0.00,,---,0.00,VWS V14.01,2013-05-30 06:17:00,
2013-05-30 02:19:00,76.4,72.6,30.05,East,85,1.0,7.0,88,0.00,,---,0.00,VWS V14.01,2013-05-30 06:19:00,
2013-05-30 02:22:00,76.4,72.6,30.05,South,170,2.0,4.0,88,0.00,,---,0.00,VWS V14.01,2013-05-30 06:22:00,
2013-05-30 02:23:00,76.4,72.6,30.05,ESE,118,2.0,4.0,88,0.00,,---,0.00,VWS V14.01,2013-05-30 06:23:00,
2013-05-30 02:24:00,76.4,72.6,30.05,ENE,61,4.0,5.0,88,0.00,,---,0.00,VWS V14.01,2013-05-30 06:24:00,
2013-05-30 02:25:00,76.4,72.6,30.05,East,101,3.0,9.0,88,0.00,,---,0.00,VWS V14.01,2013-05-30 06:25:00,
2013-05-30 02:29:00,76.3,72.5,30.05,ENE,78,5.0,5.0,88,0.00,,---,0.00,VWS V14.01,2013-05-30 06:29:00,
2013-05-30 02:30:00,76.3,72.5,30.05,East,86,1.0,5.0,88,0.00,,---,0.00,VWS V14.01,2013-05-30 06:30:00,
2013-05-30 02:31:00,76.2,72.4,30.05,ENE,63,4.0,5.0,88,0.00,,---,0.00,VWS V14.01,2013-05-30 06:31:00,
2013-05-30 02:34:00,76.2,72.4,30.05,ESE,114,2.0,5.0,88,0.00,,---,0.00,VWS V14.01,2013-05-30 06:34:00,
2013-05-30 02:35:00,76.2,72.4,30.05,East,94,0.0,5.0,88,0.00,,---,0.00,VWS V14.01,2013-05-30 06:35:00,
2013-05-30 02:36:00,76.2,72.4,30.05,ENE,70,3.0,5.0,88,0.00,,---,0.00,VWS V14.01,2013-05-30 06:36:00,
2013-05-30 02:38:00,76.1,72.3,30.05,East,95,3.0,9.0,88,0.00,,---,0.00,VWS V14.01,2013-05-30 06:38:00,
2013-05-30 02:41:00,76.2,72.4,30.05,East,90,2.0,9.0,88,0.00,,---,0.00,VWS V14.01,2013-05-30 06:41:00,
2013-05-30 02:42:00,76.1,72.3,30.05,ESE,107,7.0,10.0,88,0.00,,---,0.00,VWS V14.01,2013-05-30 06:42:00,
2013-05-30 02:43:00,76.2,72.4,30.05,East,88,5.0,10.0,88,0.00,,---,0.00,VWS V14.01,2013-05-30 06:43:00,
2013-05-30 02:47:00,76.2,72.4,30.05,NE,55,3.0,8.0,88,0.00,,---,0.00,VWS V14.01,2013-05-30 06:47:00,
2013-05-30 02:48:00,76.2,72.4,30.04,East,101,2.0,8.0,88,0.00,,---,0.00,VWS V14.01,2013-05-30 06:48:00,
2013-05-30 02:50:00,76.2,72.4,30.04,ESE,107,4.0,9.0,88,0.00,,---,0.00,VWS V14.01,2013-05-30 06:50:00,
2013-05-30 02:52:00,76.2,72.4,30.05,NE,36,2.0,5.0,88,0.00,,---,0.00,VWS V14.01,2013-05-30 06:52:00,
2013-05-30 02:53:00,76.2,72.4,30.05,ENE,74,2.0,5.0,88,0.00,,---,0.00,VWS V14.01,2013-05-30 06:53:00,
2013-05-30 02:55:00,76.2,72.4,30.04,East,80,2.0,8.0,88,0.00,,---,0.00,VWS V14.01,2013-05-30 06:55:00,
2013-05-30 02:58:00,76.1,72.3,30.05,NE,42,2.0,4.0,88,0.00,,---,0.00,VWS V14.01,2013-05-30 06:58:00,
2013-05-30 02:59:00,76.1,72.3,30.05,ENE,66,2.0,4.0,88,0.00,,---,0.00,VWS V14.01,2013-05-30 06:59:00,
2013-05-30 03:00:00,76.1,72.6,30.05,ESE,117,2.0,5.0,89,0.00,,---,0.00,VWS V14.01,2013-05-30 07:00:00,
2013-05-30 03:05:00,76.1,72.6,30.05,ENE,78,2.0,3.0,89,0.00,,---,0.00,VWS V14.01,2013-05-30 07:05:00,
2013-05-30 03:07:00,76.1,72.6,30.05,East,85,1.0,5.0,89,0.00,,---,0.00,VWS V14.01,2013-05-30 07:07:00,
2013-05-30 03:10:00,76.1,72.6,30.05,ESE,109,2.0,5.0,89,0.00,,---,0.00,VWS V14.01,2013-05-30 07:10:00,
2013-05-30 03:11:00,76.1,72.6,30.05,ESE,107,1.0,5.0,89,0.00,,---,0.00,VWS V14.01,2013-05-30 07:11:00,
2013-05-30 03:12:00,76.1,72.6,30.05,NE,51,4.0,4.0,89,0.00,,---,0.00,VWS V14.01,2013-05-30 07:12:00,
2013-05-30 03:16:00,76.0,72.5,30.05,East,84,3.0,6.0,89,0.00,,---,0.00,VWS V14.01,2013-05-30 07:16:00,
2013-05-30 03:18:00,76.0,72.5,30.04,East,82,5.0,5.0,89,0.00,,---,0.00,VWS V14.01,2013-05-30 07:18:00,
2013-05-30 03:19:00,75.9,72.4,30.04,SSE,156,4.0,5.0,89,0.00,,---,0.00,VWS V14.01,2013-05-30 07:19:00,
2013-05-30 03:22:00,75.9,72.4,30.04,NE,47,5.0,8.0,89,0.00,,---,0.00,VWS V14.01,2013-05-30 07:22:00,
2013-05-30 03:23:00,75.8,72.3,30.04,ENE,78,2.0,8.0,89,0.00,,---,0.00,VWS V14.01,2013-05-30 07:23:00,
2013-05-30 03:24:00,75.8,72.3,30.04,East,84,2.0,8.0,89,0.00,,---,0.00,VWS V14.01,2013-05-30 07:24:00,
2013-05-30 03:25:00,75.8,72.3,30.04,NE,40,2.0,8.0,89,0.00,,---,0.00,VWS V14.01,2013-05-30 07:25:00,
2013-05-30 03:26:00,75.8,72.3,30.04,ESE,117,4.0,8.0,89,0.00,,---,0.00,VWS V14.01,2013-05-30 07:26:00,
2013-05-30 03:27:00,75.8,72.3,30.04,NE,40,1.0,8.0,89,0.00,,---,0.00,VWS V14.01,2013-05-30 07:27:00,
2013-05-30 03:28:00,75.8,72.3,30.04,NE,55,7.0,8.0,89,0.00,,---,0.00,VWS V14.01,2013-05-30 07:28:00,
2013-05-30 03:30:00,75.8,72.3,30.04,NE,54,4.0,8.0,89,0.00,,---,0.00,VWS V14.01,2013-05-30 07:30:00,
2013-05-30 03:31:00,75.7,72.2,30.04,ESE,108,2.0,8.0,89,0.00,,---,0.00,VWS V14.01,2013-05-30 07:31:00,
2013-05-30 03:33:00,75.7,72.2,30.05,East,80,7.0,7.0,89,0.00,,---,0.00,VWS V14.01,2013-05-30 07:33:00,
2013-05-30 03:34:00,75.7,72.2,30.04,NE,54,1.0,7.0,89,0.00,,---,0.00,VWS V14.01,2013-05-30 07:34:00,
2013-05-30 03:36:00,75.7,72.2,30.04,ENE,70,3.0,7.0,89,0.00,,---,0.00,VWS V14.01,2013-05-30 07:36:00,
2013-05-30 03:38:00,75.7,72.6,30.04,East,79,1.0,3.0,90,0.00,,---,0.00,VWS V14.01,2013-05-30 07:38:00,
2013-05-30 03:40:00,75.7,72.6,30.04,SE,125,1.0,6.0,90,0.00,,---,0.00,VWS V14.01,2013-05-30 07:40:00,
2013-05-30 03:43:00,75.7,72.6,30.04,ESE,107,1.0,5.0,90,0.00,,---,0.00,VWS V14.01,2013-05-30 07:43:00,
2013-05-30 03:44:00,75.7,72.6,30.04,NE,42,3.0,5.0,90,0.00,,---,0.00,VWS V14.01,2013-05-30 07:44:00,
2013-05-30 03:45:00,75.6,72.5,30.04,ESE,111,1.0,5.0,90,0.00,,---,0.00,VWS V14.01,2013-05-30 07:45:00,
2013-05-30 03:46:00,75.7,72.6,30.04,NNE,32,1.0,5.0,90,0.00,,---,0.00,VWS V14.01,2013-05-30 07:46:00,
2013-05-30 03:49:00,75.6,72.5,30.04,NE,55,2.0,4.0,90,0.00,,---,0.00,VWS V14.01,2013-05-30 07:49:00,
2013-05-30 03:50:00,75.6,72.5,30.04,NE,36,2.0,4.0,90,0.00,,---,0.00,VWS V14.01,2013-05-30 07:50:00,
2013-05-30 03:52:00,75.6,72.5,30.04,NE,39,2.0,2.0,90,0.00,,---,0.00,VWS V14.01,2013-05-30 07:52:00,
2013-05-30 03:54:00,75.6,72.5,30.05,East,91,0.0,3.0,90,0.00,,---,0.00,VWS V14.01,2013-05-30 07:54:00,
2013-05-30 03:55:00,75.6,72.5,30.05,East,99,2.0,3.0,90,0.00,,---,0.00,VWS V14.01,2013-05-30 07:55:00,
2013-05-30 03:56:00,75.6,72.5,30.04,East,99,0.0,0.0,90,0.00,,---,0.00,VWS V14.01,2013-05-30 07:56:00,
2013-05-30 03:57:00,75.6,72.5,30.04,ESE,105,3.0,6.0,90,0.00,,---,0.00,VWS V14.01,2013-05-30 07:57:00,
2013-05-30 04:00:00,75.6,72.5,30.04,SE,134,2.0,6.0,90,0.00,,---,0.00,VWS V14.01,2013-05-30 08:00:00,
2013-05-30 04:01:00,75.6,72.5,30.04,ENE,78,2.0,7.0,90,0.00,,---,0.00,VWS V14.01,2013-05-30 08:01:00,
2013-05-30 04:03:00,75.6,72.5,30.04,ESE,113,2.0,5.0,90,0.00,,---,0.00,VWS V14.01,2013-05-30 08:03:00,
2013-05-30 04:06:00,75.6,72.5,30.04,East,101,3.0,7.0,90,0.00,,---,0.00,VWS V14.01,2013-05-30 08:06:00,
2013-05-30 04:07:00,75.6,72.5,30.05,ENE,65,2.0,5.0,90,0.00,,---,0.00,VWS V14.01,2013-05-30 08:07:00,
2013-05-30 04:08:00,75.6,72.5,30.05,East,80,2.0,5.0,90,0.00,,---,0.00,VWS V14.01,2013-05-30 08:08:00,
2013-05-30 04:11:00,75.5,72.4,30.05,NE,34,2.0,5.0,90,0.00,,---,0.00,VWS V14.01,2013-05-30 08:11:00,
2013-05-30 04:13:00,75.5,72.4,30.04,East,87,2.0,3.0,90,0.00,,---,0.00,VWS V14.01,2013-05-30 08:13:00,
2013-05-30 04:14:00,75.5,72.4,30.05,SE,131,1.0,5.0,90,0.00,,---,0.00,VWS V14.01,2013-05-30 08:14:00,
2013-05-30 04:17:00,75.5,72.4,30.04,ENE,71,2.0,6.0,90,0.00,,---,0.00,VWS V14.01,2013-05-30 08:17:00,
2013-05-30 04:18:00,75.5,72.4,30.04,East,91,1.0,6.0,90,0.00,,---,0.00,VWS V14.01,2013-05-30 08:18:00,
2013-05-30 04:19:00,75.6,72.5,30.04,ENE,60,3.0,6.0,90,0.00,,---,0.00,VWS V14.01,2013-05-30 08:19:00,
2013-05-30 04:21:00,75.6,72.5,30.04,ENE,57,2.0,7.0,90,0.00,,---,0.00,VWS V14.01,2013-05-30 08:21:00,
2013-05-30 04:22:00,75.6,72.5,30.04,ENE,57,3.0,3.0,90,0.00,,---,0.00,VWS V14.01,2013-05-30 08:22:00,
2013-05-30 04:23:00,75.6,72.5,30.04,ENE,78,2.0,3.0,90,0.00,,---,0.00,VWS V14.01,2013-05-30 08:23:00,
2013-05-30 04:24:00,75.5,72.4,30.04,ENE,78,2.0,3.0,90,0.00,,---,0.00,VWS V14.01,2013-05-30 08:24:00,
2013-05-30 04:25:00,75.6,72.5,30.04,East,92,3.0,3.0,90,0.00,,---,0.00,VWS V14.01,2013-05-30 08:25:00,
2013-05-30 04:26:00,75.5,72.4,30.04,ESE,111,2.0,2.0,90,0.00,,---,0.00,VWS V14.01,2013-05-30 08:26:00,
2013-05-30 04:28:00,75.5,72.4,30.04,East,96,1.0,2.0,90,0.00,,---,0.00,VWS V14.01,2013-05-30 08:28:00,
2013-05-30 04:30:00,75.5,72.4,30.04,ENE,74,2.0,3.0,90,0.00,,---,0.00,VWS V14.01,2013-05-30 08:30:00,
2013-05-30 04:32:00,75.5,72.4,30.04,East,93,3.0,6.0,90,0.00,,---,0.00,VWS V14.01,2013-05-30 08:32:00,
2013-05-30 04:33:00,75.5,72.4,30.04,East,92,1.0,6.0,90,0.00,,---,0.00,VWS V14.01,2013-05-30 08:33:00,
2013-05-30 04:34:00,75.5,72.4,30.03,WNW,289,3.0,6.0,90,0.00,,---,0.00,VWS V14.01,2013-05-30 08:34:00,
2013-05-30 04:35:00,75.5,72.4,30.03,NE,55,4.0,10.0,90,0.00,,---,0.00,VWS V14.01,2013-05-30 08:35:00,
2013-05-30 04:37:00,75.5,72.4,30.04,NE,49,2.0,3.0,90,0.00,,---,0.00,VWS V14.01,2013-05-30 08:37:00,
2013-05-30 04:39:00,75.5,72.4,30.03,East,94,3.0,4.0,90,0.00,,---,0.00,VWS V14.01,2013-05-30 08:39:00,
2013-05-30 04:40:00,75.5,72.4,30.03,NE,42,2.0,6.0,90,0.00,,---,0.00,VWS V14.01,2013-05-30 08:40:00,
2013-05-30 04:41:00,75.5,72.4,30.03,SSE,163,6.0,6.0,90,0.00,,---,0.00,VWS V14.01,2013-05-30 08:41:00,
2013-05-30 04:43:00,75.5,72.4,30.04,ENE,75,4.0,4.0,90,0.00,,---,0.00,VWS V14.01,2013-05-30 08:43:00,
2013-05-30 04:45:00,75.5,72.4,30.04,NE,46,1.0,5.0,90,0.00,,---,0.00,VWS V14.01,2013-05-30 08:45:00,
2013-05-30 04:46:00,75.5,72.4,30.04,NE,46,2.0,5.0,90,0.00,,---,0.00,VWS V14.01,2013-05-30 08:46:00,
2013-05-30 04:48:00,75.5,72.4,30.04,East,81,2.0,3.0,90,0.00,,---,0.00,VWS V14.01,2013-05-30 08:48:00,
2013-05-30 04:50:00,75.5,72.4,30.04,SE,134,2.0,5.0,90,0.00,,---,0.00,VWS V14.01,2013-05-30 08:50:00,
2013-05-30 04:51:00,75.5,72.4,30.04,East,96,2.0,5.0,90,0.00,,---,0.00,VWS V14.01,2013-05-30 08:51:00,
2013-05-30 04:52:00,75.5,72.4,30.04,ENE,75,4.0,7.0,90,0.00,,---,0.00,VWS V14.01,2013-05-30 08:52:00,
2013-05-30 04:55:00,75.5,72.4,30.04,NE,53,2.0,7.0,90,0.00,,---,0.00,VWS V14.01,2013-05-30 08:55:00,
2013-05-30 04:56:00,75.5,72.4,30.04,ENE,61,1.0,1.0,90,0.00,,---,0.00,VWS V14.01,2013-05-30 08:56:00,
2013-05-30 04:57:00,75.5,72.4,30.04,ENE,61,3.0,3.0,90,0.00,,---,0.00,VWS V14.01,2013-05-30 08:57:00,
2013-05-30 04:58:00,75.5,72.4,30.04,NNE,22,1.0,3.0,90,0.00,,---,0.00,VWS V14.01,2013-05-30 08:58:00,
2013-05-30 04:59:00,75.5,72.4,30.04,NE,53,0.0,3.0,90,0.00,,---,0.00,VWS V14.01,2013-05-30 08:59:00,
2013-05-30 05:01:00,75.6,72.5,30.04,ESE,110,3.0,9.0,90,0.00,,---,0.00,VWS V14.01,2013-05-30 09:01:00,
2013-05-30 05:02:00,75.6,72.5,30.04,ESE,105,3.0,9.0,90,0.00,,---,0.00,VWS V14.01,2013-05-30 09:02:00,
2013-05-30 05:03:00,75.6,72.5,30.04,ESE,105,0.0,9.0,90,0.00,,---,0.00,VWS V14.01,2013-05-30 09:03:00,
2013-05-30 05:04:00,75.6,72.5,30.04,NNE,27,1.0,9.0,90,0.00,,---,0.00,VWS V14.01,2013-05-30 09:04:00,
2013-05-30 05:08:00,75.6,72.5,30.04,NE,55,2.0,6.0,90,0.00,,---,0.00,VWS V14.01,2013-05-30 09:08:00,
2013-05-30 05:09:00,75.6,72.5,30.04,East,82,2.0,6.0,90,0.00,,---,0.00,VWS V14.01,2013-05-30 09:09:00,
2013-05-30 05:13:00,75.6,72.5,30.04,NE,42,2.0,3.0,90,0.00,,---,0.00,VWS V14.01,2013-05-30 09:13:00,
2013-05-30 05:14:00,75.6,72.5,30.04,ENE,65,2.0,4.0,90,0.00,,---,0.00,VWS V14.01,2013-05-30 09:14:00,
2013-05-30 05:15:00,75.6,72.5,30.04,ENE,65,2.0,4.0,90,0.00,,---,0.00,VWS V14.01,2013-05-30 09:15:00,
2013-05-30 05:19:00,75.6,72.5,30.04,NE,55,1.0,6.0,90,0.00,,---,0.00,VWS V14.01,2013-05-30 09:19:00,
2013-05-30 05:20:00,75.6,72.5,30.04,ESE,104,2.0,6.0,90,0.00,,---,0.00,VWS V14.01,2013-05-30 09:20:00,
2013-05-30 05:21:00,75.6,72.5,30.04,ESE,102,2.0,6.0,90,0.00,,---,0.00,VWS V14.01,2013-05-30 09:21:00,
2013-05-30 05:25:00,75.6,72.5,30.05,ENE,66,2.0,4.0,90,0.00,,---,0.00,VWS V14.01,2013-05-30 09:25:00,
2013-05-30 05:26:00,75.6,72.5,30.04,ENE,73,2.0,4.0,90,0.00,,---,0.00,VWS V14.01,2013-05-30 09:26:00,
2013-05-30 05:27:00,75.5,72.4,30.04,SE,138,4.0,5.0,90,0.00,,---,0.00,VWS V14.01,2013-05-30 09:27:00,
2013-05-30 05:31:00,75.6,72.5,30.04,NE,49,2.0,5.0,90,0.00,,---,0.00,VWS V14.01,2013-05-30 09:31:00,
2013-05-30 05:32:00,75.6,72.5,30.04,ENE,67,2.0,2.0,90,0.00,,---,0.00,VWS V14.01,2013-05-30 09:32:00,
2013-05-30 05:33:00,75.5,72.4,30.04,ENE,76,1.0,2.0,90,0.00,,---,0.00,VWS V14.01,2013-05-30 09:33:00,
2013-05-30 05:34:00,75.5,72.4,30.04,NE,46,2.0,2.0,90,0.00,,---,0.00,VWS V14.01,2013-05-30 09:34:00,
2013-05-30 05:36:00,75.5,72.4,30.05,ESE,108,1.0,5.0,90,0.00,,---,0.00,VWS V14.01,2013-05-30 09:36:00,
2013-05-30 05:37:00,75.6,72.5,30.04,ESE,108,1.0,2.0,90,0.00,,---,0.00,VWS V14.01,2013-05-30 09:37:00,
2013-05-30 05:39:00,75.5,72.4,30.05,ENE,58,1.0,6.0,90,0.00,,---,0.00,VWS V14.01,2013-05-30 09:39:00,
2013-05-30 05:40:00,75.5,72.4,30.05,ENE,74,2.0,6.0,90,0.00,,---,0.00,VWS V14.01,2013-05-30 09:40:00,
2013-05-30 05:41:00,75.5,72.4,30.05,NE,45,3.0,3.0,90,0.00,,---,0.00,VWS V14.01,2013-05-30 09:41:00,
2013-05-30 05:43:00,75.5,72.4,30.05,ESE,107,2.0,7.0,90,0.00,,---,0.00,VWS V14.01,2013-05-30 09:43:00,
2013-05-30 05:45:00,75.5,72.4,30.05,ENE,71,1.0,7.0,90,0.00,,---,0.00,VWS V14.01,2013-05-30 09:45:00,
2013-05-30 05:46:00,75.5,72.4,30.05,ENE,58,0.0,1.0,90,0.00,,---,0.00,VWS V14.01,2013-05-30 09:46:00,
2013-05-30 05:47:00,75.5,72.4,30.05,ESE,103,2.0,2.0,90,0.00,,---,0.00,VWS V14.01,2013-05-30 09:47:00,
2013-05-30 05:49:00,75.5,72.4,30.05,North,355,0.0,7.0,90,0.00,,---,0.00,VWS V14.01,2013-05-30 09:49:00,
2013-05-30 05:50:00,75.5,72.4,30.05,East,101,1.0,7.0,90,0.00,,---,0.00,VWS V14.01,2013-05-30 09:50:00,
2013-05-30 05:51:00,75.5,72.4,30.05,ESE,102,1.0,2.0,90,0.00,,---,0.00,VWS V14.01,2013-05-30 09:51:00,
2013-05-30 05:52:00,75.5,72.4,30.05,East,100,6.0,9.0,90,0.00,,---,0.00,VWS V14.01,2013-05-30 09:52:00,
2013-05-30 05:55:00,75.5,72.4,30.05,ESE,103,1.0,9.0,90,0.00,,---,0.00,VWS V14.01,2013-05-30 09:55:00,
2013-05-30 05:56:00,75.5,72.4,30.05,East,90,1.0,9.0,90,0.00,,---,0.00,VWS V14.01,2013-05-30 09:56:00,
2013-05-30 05:57:00,75.4,72.3,30.05,NE,55,0.0,3.0,90,0.00,,---,0.00,VWS V14.01,2013-05-30 09:57:00,
2013-05-30 05:58:00,75.5,72.4,30.05,NE,56,2.0,5.0,90,0.00,,---,0.00,VWS V14.01,2013-05-30 09:58:00,
2013-05-30 06:00:00,75.5,72.4,30.05,NE,51,3.0,5.0,90,0.00,,---,0.00,VWS V14.01,2013-05-30 10:00:00,
2013-05-30 06:02:00,75.5,72.4,30.05,NE,45,3.0,6.0,90,0.00,,---,0.00,VWS V14.01,2013-05-30 10:02:00,
2013-05-30 06:03:00,75.5,72.4,30.05,ESE,107,2.0,6.0,90,0.00,,---,0.00,VWS V14.01,2013-05-30 10:03:00,
2013-05-30 06:04:00,75.5,72.4,30.05,ENE,59,1.0,6.0,90,0.00,,---,0.00,VWS V14.01,2013-05-30 10:04:00,
2013-05-30 06:05:00,75.5,72.4,30.05,NE,53,3.0,6.0,90,0.00,,---,0.00,VWS V14.01,2013-05-30 10:05:00,
2013-05-30 06:08:00,75.5,72.4,30.05,ENE,70,1.0,3.0,90,0.00,,---,0.00,VWS V14.01,2013-05-30 10:08:00,
2013-05-30 06:09:00,75.5,72.4,30.05,ENE,68,2.0,5.0,90,0.00,,---,0.00,VWS V14.01,2013-05-30 10:09:00,
2013-05-30 06:10:00,75.5,72.4,30.05,ENE,70,3.0,5.0,90,0.00,,---,0.00,VWS V14.01,2013-05-30 10:10:00,
2013-05-30 06:11:00,75.5,72.4,30.05,SE,128,4.0,8.0,90,0.00,,---,0.00,VWS V14.01,2013-05-30 10:11:00,
2013-05-30 06:14:00,75.5,72.4,30.05,ENE,69,2.0,4.0,90,0.00,,---,0.00,VWS V14.01,2013-05-30 10:14:00,
2013-05-30 06:15:00,75.5,72.4,30.05,NE,50,1.0,4.0,90,0.00,,---,0.00,VWS V14.01,2013-05-30 10:15:00,
2013-05-30 06:16:00,75.5,72.4,30.05,ESE,108,1.0,4.0,90,0.00,,---,0.00,VWS V14.01,2013-05-30 10:16:00,
2013-05-30 06:20:00,75.5,72.7,30.05,ENE,67,1.0,4.0,91,0.00,,---,0.00,VWS V14.01,2013-05-30 10:20:00,
2013-05-30 06:21:00,75.5,72.7,30.05,ENE,59,1.0,2.0,91,0.00,,---,0.00,VWS V14.01,2013-05-30 10:21:00,
2013-05-30 06:22:00,75.5,72.7,30.05,ENE,59,2.0,2.0,91,0.00,,---,0.00,VWS V14.01,2013-05-30 10:22:00,
2013-05-30 06:23:00,75.5,72.7,30.05,ENE,59,1.0,2.0,91,0.00,,---,0.00,VWS V14.01,2013-05-30 10:23:00,
2013-05-30 06:24:00,75.5,72.7,30.06,ENE,59,1.0,2.0,91,0.00,,---,0.00,VWS V14.01,2013-05-30 10:24:00,
2013-05-30 06:26:00,75.5,72.7,30.06,ENE,59,2.0,3.0,91,0.00,,---,0.00,VWS V14.01,2013-05-30 10:26:00,
2013-05-30 06:27:00,75.5,72.7,30.06,ENE,59,1.0,3.0,91,0.00,,---,0.00,VWS V14.01,2013-05-30 10:27:00,
2013-05-30 06:29:00,75.5,72.7,30.05,East,96,1.0,3.0,91,0.00,,---,0.00,VWS V14.01,2013-05-30 10:29:00,
2013-05-30 06:30:00,75.5,72.7,30.05,East,96,2.0,3.0,91,0.00,,---,0.00,VWS V14.01,2013-05-30 10:30:00,
2013-05-30 06:31:00,75.5,72.7,30.06,East,96,2.0,3.0,91,0.00,,---,0.00,VWS V14.01,2013-05-30 10:31:00,
2013-05-30 06:33:00,75.4,72.6,30.06,East,86,3.0,6.0,91,0.00,,---,0.00,VWS V14.01,2013-05-30 10:33:00,
2013-05-30 06:35:00,75.4,72.6,30.05,NE,50,2.0,6.0,91,0.00,,---,0.00,VWS V14.01,2013-05-30 10:35:00,
2013-05-30 06:36:00,75.3,72.5,30.06,NE,50,1.0,3.0,91,0.00,,---,0.00,VWS V14.01,2013-05-30 10:36:00,
2013-05-30 06:37:00,75.3,72.5,30.06,NNE,26,4.0,4.0,91,0.00,,---,0.00,VWS V14.01,2013-05-30 10:37:00,
2013-05-30 06:38:00,75.3,72.5,30.06,ENE,57,1.0,4.0,91,0.00,,---,0.00,VWS V14.01,2013-05-30 10:38:00,
2013-05-30 06:40:00,75.2,72.4,30.06,East,89,2.0,4.0,91,0.00,,---,0.00,VWS V14.01,2013-05-30 10:40:00,
2013-05-30 06:41:00,75.2,72.4,30.06,East,91,1.0,1.0,91,0.00,,---,0.00,VWS V14.01,2013-05-30 10:41:00,
2013-05-30 06:42:00,75.2,72.4,30.06,East,88,1.0,3.0,91,0.00,,---,0.00,VWS V14.01,2013-05-30 10:42:00,
2013-05-30 06:43:00,75.2,72.4,30.06,East,88,1.0,3.0,91,0.00,,---,0.00,VWS V14.01,2013-05-30 10:43:00,
2013-05-30 06:45:00,75.2,72.7,30.06,NE,53,2.0,5.0,92,0.00,,---,0.00,VWS V14.01,2013-05-30 10:45:00,
2013-05-30 06:46:00,75.2,72.7,30.06,ENE,64,1.0,5.0,92,0.00,,---,0.00,VWS V14.01,2013-05-30 10:46:00,
2013-05-30 06:47:00,75.2,72.7,30.06,NE,41,2.0,3.0,92,0.00,,---,0.00,VWS V14.01,2013-05-30 10:47:00,
2013-05-30 06:48:00,75.1,72.6,30.06,ENE,57,1.0,3.0,92,0.00,,---,0.00,VWS V14.01,2013-05-30 10:48:00,
2013-05-30 06:49:00,75.2,72.7,30.06,ENE,59,1.0,3.0,92,0.00,,---,0.00,VWS V14.01,2013-05-30 10:49:00,
2013-05-30 06:50:00,75.2,72.7,30.06,ENE,59,2.0,3.0,92,0.00,,---,0.00,VWS V14.01,2013-05-30 10:50:00,
2013-05-30 06:52:00,75.2,72.7,30.06,ENE,65,2.0,3.0,92,0.00,,---,0.00,VWS V14.01,2013-05-30 10:52:00,
2013-05-30 06:53:00,75.2,72.7,30.06,ENE,65,1.0,3.0,92,0.00,,---,0.00,VWS V14.01,2013-05-30 10:53:00,
2013-05-30 06:54:00,75.2,72.7,30.06,ENE,67,3.0,4.0,92,0.00,,---,0.00,VWS V14.01,2013-05-30 10:54:00,
2013-05-30 06:56:00,75.2,72.7,30.05,NE,45,2.0,4.0,92,0.00,,---,0.00,VWS V14.01,2013-05-30 10:56:00,
2013-05-30 06:58:00,75.2,72.7,30.05,NNE,28,4.0,4.0,92,0.00,,---,0.00,VWS V14.01,2013-05-30 10:58:00,
2013-05-30 06:59:00,75.2,72.7,30.05,NE,38,1.0,4.0,92,0.00,,---,0.00,VWS V14.01,2013-05-30 10:59:00,
2013-05-30 07:00:00,75.2,72.7,30.05,NE,46,2.0,4.0,92,0.00,,---,0.00,VWS V14.01,2013-05-30 11:00:00,
2013-05-30 07:01:00,75.2,72.7,30.05,NNE,19,2.0,3.0,92,0.00,,---,0.00,VWS V14.01,2013-05-30 11:01:00,
2013-05-30 07:03:00,75.2,72.7,30.05,NE,52,1.0,3.0,92,0.00,,---,0.00,VWS V14.01,2013-05-30 11:03:00,
2013-05-30 07:04:00,75.2,72.7,30.05,NNE,17,2.0,4.0,92,0.00,,---,0.00,VWS V14.01,2013-05-30 11:04:00,
2013-05-30 07:05:00,75.2,72.7,30.05,East,83,2.0,8.0,92,0.00,,---,0.00,VWS V14.01,2013-05-30 11:05:00,
2013-05-30 07:06:00,75.2,72.7,30.05,NNE,17,3.0,8.0,92,0.00,,---,0.00,VWS V14.01,2013-05-30 11:06:00,
2013-05-30 07:09:00,75.2,72.7,30.06,ESE,103,1.0,4.0,92,0.00,,---,0.00,VWS V14.01,2013-05-30 11:09:00,
2013-05-30 07:10:00,75.2,72.7,30.06,North,355,3.0,4.0,92,0.00,,---,0.00,VWS V14.01,2013-05-30 11:10:00,
2013-05-30 07:11:00,75.2,72.7,30.06,NNE,14,2.0,2.0,92,0.00,,---,0.00,VWS V14.01,2013-05-30 11:11:00,
2013-05-30 07:12:00,75.2,72.4,30.06,ENE,57,1.0,6.0,91,0.00,,---,0.00,VWS V14.01,2013-05-30 11:12:00,
2013-05-30 07:16:00,75.3,72.5,30.06,ENE,57,2.0,6.0,91,0.00,,---,0.00,VWS V14.01,2013-05-30 11:16:00,
2013-05-30 07:17:00,75.3,72.5,30.06,NE,51,1.0,2.0,91,0.00,,---,0.00,VWS V14.01,2013-05-30 11:17:00,
2013-05-30 07:18:00,75.3,72.5,30.06,NE,51,1.0,3.0,91,0.00,,---,0.00,VWS V14.01,2013-05-30 11:18:00,
2013-05-30 07:21:00,75.4,72.6,30.06,ENE,78,2.0,2.0,91,0.00,,---,0.00,VWS V14.01,2013-05-30 11:21:00,
2013-05-30 07:22:00,75.4,72.6,30.06,East,86,3.0,5.0,91,0.00,,---,0.00,VWS V14.01,2013-05-30 11:22:00,
2013-05-30 07:23:00,75.4,72.6,30.06,NE,38,2.0,5.0,91,0.00,,---,0.00,VWS V14.01,2013-05-30 11:23:00,
2013-05-30 07:25:00,75.5,72.7,30.06,NNE,15,4.0,5.0,91,0.00,,---,0.00,VWS V14.01,2013-05-30 11:25:00,
2013-05-30 07:28:00,75.5,72.7,30.06,NE,53,4.0,4.0,91,0.00,,---,0.00,VWS V14.01,2013-05-30 11:28:00,
2013-05-30 07:29:00,75.6,72.8,30.06,NNE,21,1.0,5.0,91,0.00,,---,0.00,VWS V14.01,2013-05-30 11:29:00,
2013-05-30 07:30:00,75.6,72.8,30.07,ENE,61,3.0,5.0,91,0.00,,---,0.00,VWS V14.01,2013-05-30 11:30:00,
2013-05-30 07:31:00,75.6,72.8,30.07,NE,36,1.0,3.0,91,0.00,,---,0.00,VWS V14.01,2013-05-30 11:31:00,
2013-05-30 07:32:00,75.6,72.8,30.07,ENE,61,3.0,3.0,91,0.00,,---,0.00,VWS V14.01,2013-05-30 11:32:00,
2013-05-30 07:33:00,75.7,72.9,30.07,ENE,59,1.0,3.0,91,0.00,,---,0.00,VWS V14.01,2013-05-30 11:33:00,
2013-05-30 07:34:00,75.7,72.9,30.07,East,82,3.0,6.0,91,0.00,,---,0.00,VWS V14.01,2013-05-30 11:34:00,
2013-05-30 07:35:00,75.7,72.9,30.07,ENE,57,3.0,6.0,91,0.00,,---,0.00,VWS V14.01,2013-05-30 11:35:00,
2013-05-30 07:38:00,75.7,72.6,30.07,SE,130,2.0,5.0,90,0.00,,---,0.00,VWS V14.01,2013-05-30 11:38:00,
2013-05-30 07:39:00,75.7,72.6,30.07,NE,46,2.0,5.0,90,0.00,,---,0.00,VWS V14.01,2013-05-30 11:39:00,
2013-05-30 07:41:00,75.7,72.6,30.07,ENE,61,2.0,5.0,90,0.00,,---,0.00,VWS V14.01,2013-05-30 11:41:00,
2013-05-30 07:44:00,75.8,72.7,30.07,NNE,25,2.0,5.0,90,0.00,,---,0.00,VWS V14.01,2013-05-30 11:44:00,
2013-05-30 07:45:00,75.8,72.7,30.07,SE,139,1.0,5.0,90,0.00,,---,0.00,VWS V14.01,2013-05-30 11:45:00,
2013-05-30 07:46:00,75.8,72.7,30.07,SE,135,2.0,5.0,90,0.00,,---,0.00,VWS V14.01,2013-05-30 11:46:00,
2013-05-30 07:50:00,75.8,72.7,30.07,NNE,18,2.0,5.0,90,0.00,,---,0.00,VWS V14.01,2013-05-30 11:50:00,
2013-05-30 07:51:00,75.8,72.7,30.07,NE,41,3.0,5.0,90,0.00,,---,0.00,VWS V14.01,2013-05-30 11:51:00,
2013-05-30 07:53:00,75.9,72.8,30.07,ENE,63,3.0,4.0,90,0.00,,---,0.00,VWS V14.01,2013-05-30 11:53:00,
2013-05-30 07:55:00,75.9,72.8,30.07,NNE,15,2.0,4.0,90,0.00,,---,0.00,VWS V14.01,2013-05-30 11:55:00,
2013-05-30 07:56:00,75.9,72.8,30.07,ENE,67,2.0,4.0,90,0.00,,---,0.00,VWS V14.01,2013-05-30 11:56:00,
2013-05-30 07:58:00,76.0,72.9,30.07,NE,41,3.0,5.0,90,0.00,,---,0.00,VWS V14.01,2013-05-30 11:58:00,
2013-05-30 08:01:00,76.0,72.5,30.07,NE,36,3.0,7.0,89,0.00,,---,0.00,VWS V14.01,2013-05-30 12:01:00,
2013-05-30 08:02:00,76.0,72.5,30.07,NE,40,3.0,8.0,89,0.00,,---,0.00,VWS V14.01,2013-05-30 12:02:00,
2013-05-30 08:03:00,76.0,72.5,30.07,NE,55,2.0,8.0,89,0.00,,---,0.00,VWS V14.01,2013-05-30 12:03:00,
2013-05-30 08:05:00,76.0,72.5,30.07,NE,49,2.0,8.0,89,0.00,,---,0.00,VWS V14.01,2013-05-30 12:05:00,
2013-05-30 08:06:00,76.0,72.5,30.07,NE,44,3.0,8.0,89,0.00,,---,0.00,VWS V14.01,2013-05-30 12:06:00,
2013-05-30 08:07:00,76.0,72.5,30.07,ENE,57,2.0,4.0,89,0.00,,---,0.00,VWS V14.01,2013-05-30 12:07:00,
2013-05-30 08:08:00,76.1,72.6,30.07,ENE,59,3.0,4.0,89,0.00,,---,0.00,VWS V14.01,2013-05-30 12:08:00,
2013-05-30 08:09:00,76.1,72.6,30.07,North,5,5.0,5.0,89,0.00,,---,0.00,VWS V14.01,2013-05-30 12:09:00,
2013-05-30 08:11:00,76.2,73.1,30.07,ESE,105,3.0,4.0,90,0.00,,---,0.00,VWS V14.01,2013-05-30 12:11:00,
2013-05-30 08:12:00,76.2,72.7,30.07,ESE,105,2.0,4.0,89,0.00,,---,0.00,VWS V14.01,2013-05-30 12:12:00,
2013-05-30 08:13:00,76.3,72.8,30.07,NE,53,2.0,4.0,89,0.00,,---,0.00,VWS V14.01,2013-05-30 12:13:00,
2013-05-30 08:14:00,76.4,72.9,30.07,NE,45,4.0,7.0,89,0.00,,---,0.00,VWS V14.01,2013-05-30 12:14:00,
2013-05-30 08:17:00,76.5,73.0,30.07,NE,44,3.0,6.0,89,0.00,,---,0.00,VWS V14.01,2013-05-30 12:17:00,
2013-05-30 08:18:00,76.5,73.0,30.07,East,80,5.0,6.0,89,0.00,,---,0.00,VWS V14.01,2013-05-30 12:18:00,
2013-05-30 08:20:00,76.6,73.1,30.07,NNW,337,5.0,7.0,89,0.00,,---,0.00,VWS V14.01,2013-05-30 12:20:00,
2013-05-30 08:21:00,76.7,72.9,30.07,East,96,3.0,6.0,88,0.00,,---,0.00,VWS V14.01,2013-05-30 12:21:00,
2013-05-30 08:23:00,76.8,73.0,30.07,NE,49,3.0,7.0,88,0.00,,---,0.00,VWS V14.01,2013-05-30 12:23:00,
2013-05-30 08:24:00,76.9,73.1,30.07,ENE,76,3.0,7.0,88,0.00,,---,0.00,VWS V14.01,2013-05-30 12:24:00,
2013-05-30 08:26:00,77.0,73.2,30.07,East,88,3.0,7.0,88,0.00,,---,0.00,VWS V14.01,2013-05-30 12:26:00,
2013-05-30 08:27:00,77.0,73.2,30.07,NNE,17,2.0,7.0,88,0.00,,---,0.00,VWS V14.01,2013-05-30 12:27:00,
2013-05-30 08:28:00,77.1,73.3,30.07,ENE,71,4.0,7.0,88,0.00,,---,0.00,VWS V14.01,2013-05-30 12:28:00,
2013-05-30 08:29:00,77.2,73.4,30.07,ESE,110,5.0,7.0,88,0.00,,---,0.00,VWS V14.01,2013-05-30 12:29:00,
2013-05-30 08:30:00,77.2,73.4,30.07,ENE,66,2.0,7.0,88,0.00,,---,0.00,VWS V14.01,2013-05-30 12:30:00,
2013-05-30 08:31:00,77.3,73.1,30.07,East,88,3.0,5.0,87,0.00,,---,0.00,VWS V14.01,2013-05-30 12:31:00,
2013-05-30 08:32:00,77.4,73.2,30.07,ESE,107,1.0,5.0,87,0.00,,---,0.00,VWS V14.01,2013-05-30 12:32:00,
2013-05-30 08:34:00,77.5,73.3,30.07,East,88,2.0,6.0,87,0.00,,---,0.00,VWS V14.01,2013-05-30 12:34:00,
2013-05-30 08:35:00,77.5,73.3,30.07,East,88,2.0,6.0,87,0.00,,---,0.00,VWS V14.01,2013-05-30 12:35:00,
2013-05-30 08:36:00,77.6,73.4,30.07,East,86,6.0,7.0,87,0.00,,---,0.00,VWS V14.01,2013-05-30 12:36:00,
2013-05-30 08:37:00,77.6,73.4,30.07,ESE,117,3.0,11.0,87,0.00,,---,0.00,VWS V14.01,2013-05-30 12:37:00,
2013-05-30 08:39:00,77.7,73.2,30.07,NE,55,3.0,11.0,86,0.00,,---,0.00,VWS V14.01,2013-05-30 12:39:00,
2013-05-30 08:40:00,77.8,73.3,30.07,East,100,2.0,11.0,86,0.00,,---,0.00,VWS V14.01,2013-05-30 12:40:00,
2013-05-30 08:41:00,77.8,73.3,30.07,ESE,118,2.0,11.0,86,0.00,,---,0.00,VWS V14.01,2013-05-30 12:41:00,
2013-05-30 08:42:00,77.9,73.4,30.07,ESE,116,2.0,3.0,86,0.00,,---,0.00,VWS V14.01,2013-05-30 12:42:00,
2013-05-30 08:44:00,78.0,73.5,30.07,NE,53,3.0,3.0,86,0.00,,---,0.00,VWS V14.01,2013-05-30 12:44:00,
2013-05-30 08:46:00,78.1,73.2,30.07,East,82,3.0,7.0,85,0.00,,---,0.00,VWS V14.01,2013-05-30 12:46:00,
2013-05-30 08:47:00,78.1,73.2,30.07,NE,42,3.0,3.0,85,0.00,,---,0.00,VWS V14.01,2013-05-30 12:47:00,
2013-05-30 08:48:00,78.2,73.3,30.07,NE,43,3.0,6.0,85,0.00,,---,0.00,VWS V14.01,2013-05-30 12:48:00,
2013-05-30 08:51:00,78.2,73.3,30.07,NNE,19,3.0,8.0,85,0.00,,---,0.00,VWS V14.01,2013-05-30 12:51:00,
2013-05-30 08:53:00,78.2,73.0,30.07,ENE,76,3.0,7.0,84,0.00,,---,0.00,VWS V14.01,2013-05-30 12:53:00,
2013-05-30 08:54:00,78.2,73.0,30.07,East,90,5.0,7.0,84,0.00,,---,0.00,VWS V14.01,2013-05-30 12:54:00,
2013-05-30 08:56:00,78.2,73.0,30.07,East,85,2.0,7.0,84,0.00,,---,0.00,VWS V14.01,2013-05-30 12:56:00,
2013-05-30 08:58:00,78.2,73.0,30.07,NE,38,3.0,5.0,84,0.00,,---,0.00,VWS V14.01,2013-05-30 12:58:00,
2013-05-30 09:00:00,78.2,73.0,30.07,NE,44,3.0,5.0,84,0.00,,---,0.00,VWS V14.01,2013-05-30 13:00:00,
2013-05-30 09:01:00,78.3,73.1,30.07,ENE,58,2.0,2.0,84,0.00,,---,0.00,VWS V14.01,2013-05-30 13:01:00,
2013-05-30 09:04:00,78.4,73.2,30.07,ENE,71,2.0,8.0,84,0.00,,---,0.00,VWS V14.01,2013-05-30 13:04:00,
2013-05-30 09:05:00,78.5,73.3,30.07,NE,36,4.0,8.0,84,0.00,,---,0.00,VWS V14.01,2013-05-30 13:05:00,
2013-05-30 09:06:00,78.5,72.9,30.07,SE,124,3.0,8.0,83,0.00,,---,0.00,VWS V14.01,2013-05-30 13:06:00,
2013-05-30 09:07:00,78.6,73.4,30.07,ENE,67,1.0,4.0,84,0.00,,---,0.00,VWS V14.01,2013-05-30 13:07:00,
2013-05-30 09:09:00,78.8,73.2,30.07,NE,50,2.0,7.0,83,0.00,,---,0.00,VWS V14.01,2013-05-30 13:09:00,
2013-05-30 09:11:00,78.9,73.3,30.07,ESE,110,4.0,7.0,83,0.00,,---,0.00,VWS V14.01,2013-05-30 13:11:00,
2013-05-30 09:12:00,78.9,73.3,30.08,East,98,2.0,2.0,83,0.00,,---,0.00,VWS V14.01,2013-05-30 13:12:00,
2013-05-30 09:13:00,79.0,73.4,30.08,NE,54,3.0,6.0,83,0.00,,---,0.00,VWS V14.01,2013-05-30 13:13:00,
2013-05-30 09:14:00,79.1,73.1,30.08,NE,42,4.0,6.0,82,0.00,,---,0.00,VWS V14.01,2013-05-30 13:14:00,
2013-05-30 09:17:00,79.2,73.2,30.08,SSE,165,2.0,5.0,82,0.00,,---,0.00,VWS V14.01,2013-05-30 13:17:00,
2013-05-30 09:18:00,79.3,73.3,30.08,NE,52,2.0,5.0,82,0.00,,---,0.00,VWS V14.01,2013-05-30 13:18:00,
2013-05-30 09:19:00,79.3,73.3,30.08,ENE,75,5.0,6.0,82,0.00,,---,0.00,VWS V14.01,2013-05-30 13:19:00,
2013-05-30 09:22:00,79.5,73.2,30.08,ENE,61,3.0,4.0,81,0.00,,---,0.00,VWS V14.01,2013-05-30 13:22:00,
2013-05-30 09:23:00,79.6,73.3,30.08,SE,140,5.0,5.0,81,0.00,,---,0.00,VWS V14.01,2013-05-30 13:23:00,
2013-05-30 09:25:00,79.7,73.0,30.08,NE,54,2.0,6.0,80,0.00,,---,0.00,VWS V14.01,2013-05-30 13:25:00,
2013-05-30 09:27:00,79.8,73.1,30.08,NNE,32,4.0,4.0,80,0.00,,---,0.00,VWS V14.01,2013-05-30 13:27:00,
2013-05-30 09:28:00,79.9,73.2,30.08,NE,53,1.0,4.0,80,0.00,,---,0.00,VWS V14.01,2013-05-30 13:28:00,
2013-05-30 09:29:00,79.9,73.6,30.08,NE,50,2.0,4.0,81,0.00,,---,0.00,VWS V14.01,2013-05-30 13:29:00,
2013-05-30 09:30:00,80.1,73.4,30.08,NE,36,3.0,8.0,80,0.00,,---,0.00,VWS V14.01,2013-05-30 13:30:00,
2013-05-30 09:32:00,80.3,73.6,30.08,East,86,5.0,8.0,80,0.00,,---,0.00,VWS V14.01,2013-05-30 13:32:00,
2013-05-30 09:34:00,80.4,73.7,30.08,East,83,1.0,8.0,80,0.00,,---,0.00,VWS V14.01,2013-05-30 13:34:00,
2013-05-30 09:35:00,80.5,73.4,30.07,ESE,111,4.0,8.0,79,0.00,,---,0.00,VWS V14.01,2013-05-30 13:35:00,
2013-05-30 09:36:00,80.6,73.5,30.07,East,92,8.0,8.0,79,0.00,,---,0.00,VWS V14.01,2013-05-30 13:36:00,
2013-05-30 09:37:00,80.7,73.2,30.07,ENE,71,3.0,8.0,78,0.00,,---,0.00,VWS V14.01,2013-05-30 13:37:00,
2013-05-30 09:40:00,80.9,73.0,30.07,ENE,57,2.0,8.0,77,0.00,,---,0.00,VWS V14.01,2013-05-30 13:40:00,
2013-05-30 09:41:00,81.0,72.7,30.07,NE,52,4.0,8.0,76,0.00,,---,0.00,VWS V14.01,2013-05-30 13:41:00,
2013-05-30 09:42:00,81.0,72.7,30.07,East,82,5.0,7.0,76,0.00,,---,0.00,VWS V14.01,2013-05-30 13:42:00,
2013-05-30 09:43:00,81.0,72.7,30.07,NNE,15,5.0,9.0,76,0.00,,---,0.00,VWS V14.01,2013-05-30 13:43:00,
2013-05-30 09:46:00,81.3,72.6,30.07,ENE,61,3.0,3.0,75,0.00,,---,0.00,VWS V14.01,2013-05-30 13:46:00,
2013-05-30 09:47:00,81.3,72.6,30.07,NE,38,3.0,7.0,75,0.00,,---,0.00,VWS V14.01,2013-05-30 13:47:00,
2013-05-30 09:48:00,81.4,72.7,30.07,ESE,103,3.0,7.0,75,0.00,,---,0.00,VWS V14.01,2013-05-30 13:48:00,
2013-05-30 09:50:00,81.6,72.5,30.07,East,84,3.0,7.0,74,0.00,,---,0.00,VWS V14.01,2013-05-30 13:50:00,
2013-05-30 09:52:00,81.8,73.1,30.07,ENE,60,3.0,3.0,75,0.00,,---,0.00,VWS V14.01,2013-05-30 13:52:00,
2013-05-30 09:53:00,81.9,72.4,30.07,East,94,3.0,8.0,73,0.00,,---,0.00,VWS V14.01,2013-05-30 13:53:00,
2013-05-30 09:56:00,82.1,72.6,30.07,East,88,5.0,8.0,73,0.00,,---,0.00,VWS V14.01,2013-05-30 13:56:00,
2013-05-30 09:57:00,82.2,72.3,30.07,ESE,113,3.0,8.0,72,0.00,,---,0.00,VWS V14.01,2013-05-30 13:57:00,
2013-05-30 09:59:00,82.3,72.4,30.07,NE,55,3.0,8.0,72,0.00,,---,0.00,VWS V14.01,2013-05-30 13:59:00,
2013-05-30 10:00:00,82.3,72.0,30.07,NE,52,4.0,11.0,71,0.00,,---,0.00,VWS V14.01,2013-05-30 14:00:00,
2013-05-30 10:01:00,82.4,72.1,30.07,NNE,17,5.0,5.0,71,0.00,,---,0.00,VWS V14.01,2013-05-30 14:01:00,
2013-05-30 10:03:00,82.5,71.7,30.07,ENE,61,2.0,5.0,70,0.00,,---,0.00,VWS V14.01,2013-05-30 14:03:00,
2013-05-30 10:05:00,82.6,71.8,30.07,ENE,74,3.0,8.0,70,0.00,,---,0.00,VWS V14.01,2013-05-30 14:05:00,
2013-05-30 10:06:00,82.7,71.9,30.07,NNE,31,1.0,8.0,70,0.00,,---,0.00,VWS V14.01,2013-05-30 14:06:00,
2013-05-30 10:07:00,82.8,72.4,30.07,NE,50,4.0,4.0,71,0.00,,---,0.00,VWS V14.01,2013-05-30 14:07:00,
2013-05-30 10:10:00,83.1,72.3,30.07,SE,136,3.0,5.0,70,0.00,,---,0.00,VWS V14.01,2013-05-30 14:10:00,
2013-05-30 10:11:00,83.2,72.4,30.07,NNE,22,5.0,7.0,70,0.00,,---,0.00,VWS V14.01,2013-05-30 14:11:00,
2013-05-30 10:12:00,83.2,72.0,30.07,North,5,4.0,7.0,69,0.00,,---,0.00,VWS V14.01,2013-05-30 14:12:00,
2013-05-30 10:14:00,83.3,71.2,30.07,NNE,19,4.0,10.0,67,0.00,,---,0.00,VWS V14.01,2013-05-30 14:14:00,
2013-05-30 10:17:00,83.4,71.3,30.07,North,11,4.0,5.0,67,0.00,,---,0.00,VWS V14.01,2013-05-30 14:17:00,
2013-05-30 10:18:00,83.4,71.3,30.07,NE,55,4.0,7.0,67,0.00,,---,0.00,VWS V14.01,2013-05-30 14:18:00,
2013-05-30 10:19:00,83.4,71.3,30.07,East,98,6.0,10.0,67,0.00,,---,0.00,VWS V14.01,2013-05-30 14:19:00,
2013-05-30 10:20:00,83.4,71.7,30.07,East,100,1.0,10.0,68,0.00,,---,0.00,VWS V14.01,2013-05-30 14:20:00,
2013-05-30 10:23:00,83.5,71.8,30.07,ESE,122,5.0,5.0,68,0.00,,---,0.00,VWS V14.01,2013-05-30 14:23:00,
2013-05-30 10:24:00,83.6,71.9,30.07,East,96,3.0,8.0,68,0.00,,---,0.00,VWS V14.01,2013-05-30 14:24:00,
2013-05-30 10:25:00,83.7,71.1,30.06,NE,51,3.0,9.0,66,0.00,,---,0.00,VWS V14.01,2013-05-30 14:25:00,
2013-05-30 10:29:00,83.8,71.2,30.07,East,81,3.0,10.0,66,0.00,,---,0.00,VWS V14.01,2013-05-30 14:29:00,
2013-05-30 10:30:00,83.9,71.3,30.07,NE,49,4.0,10.0,66,0.00,,---,0.00,VWS V14.01,2013-05-30 14:30:00,
2013-05-30 10:32:00,84.0,71.4,30.07,ENE,60,7.0,7.0,66,0.00,,---,0.00,VWS V14.01,2013-05-30 14:32:00,
2013-05-30 10:33:00,84.1,71.5,30.06,ENE,68,2.0,7.0,66,0.00,,---,0.00,VWS V14.01,2013-05-30 14:33:00,
2013-05-30 10:34:00,84.1,71.5,30.07,SE,141,4.0,8.0,66,0.00,,---,0.00,VWS V14.01,2013-05-30 14:34:00,
2013-05-30 10:35:00,84.1,71.5,30.07,ENE,75,4.0,8.0,66,0.00,,---,0.00,VWS V14.01,2013-05-30 14:35:00,
2013-05-30 10:37:00,84.2,71.6,30.07,ESE,105,4.0,5.0,66,0.00,,---,0.00,VWS V14.01,2013-05-30 14:37:00,
2013-05-30 10:39:00,84.2,71.6,30.07,ENE,67,2.0,8.0,66,0.00,,---,0.00,VWS V14.01,2013-05-30 14:39:00,
2013-05-30 10:40:00,84.2,71.6,30.07,ENE,66,4.0,8.0,66,0.00,,---,0.00,VWS V14.01,2013-05-30 14:40:00,
2013-05-30 10:42:00,84.2,71.6,30.07,ENE,71,4.0,6.0,66,0.00,,---,0.00,VWS V14.01,2013-05-30 14:42:00,
2013-05-30 10:44:00,84.3,71.7,30.07,NE,47,3.0,9.0,66,0.00,,---,0.00,VWS V14.01,2013-05-30 14:44:00,
2013-05-30 10:46:00,84.4,71.4,30.07,East,88,1.0,11.0,65,0.00,,---,0.00,VWS V14.01,2013-05-30 14:46:00,
2013-05-30 10:47:00,84.4,71.4,30.07,East,88,3.0,3.0,65,0.00,,---,0.00,VWS V14.01,2013-05-30 14:47:00,
2013-05-30 10:50:00,84.6,71.6,30.07,ESE,102,3.0,7.0,65,0.00,,---,0.00,VWS V14.01,2013-05-30 14:50:00,
2013-05-30 10:51:00,84.7,71.6,30.07,SW,223,3.0,5.0,65,0.00,,---,0.00,VWS V14.01,2013-05-30 14:51:00,
2013-05-30 10:52:00,84.7,71.6,30.07,East,101,6.0,9.0,65,0.00,,---,0.00,VWS V14.01,2013-05-30 14:52:00,
2013-05-30 10:56:00,84.8,71.3,30.07,ENE,63,7.0,10.0,64,0.00,,---,0.00,VWS V14.01,2013-05-30 14:56:00,
2013-05-30 10:57:00,84.8,71.7,30.07,ENE,61,4.0,9.0,65,0.00,,---,0.00,VWS V14.01,2013-05-30 14:57:00,
2013-05-30 10:58:00,84.8,71.7,30.07,East,84,3.0,9.0,65,0.00,,---,0.00,VWS V14.01,2013-05-30 14:58:00,
2013-05-30 11:01:00,85.0,72.4,30.07,NNE,20,6.0,9.0,66,0.00,,---,0.00,VWS V14.01,2013-05-30 15:01:00,
2013-05-30 11:02:00,85.1,72.0,30.07,ESE,110,3.0,10.0,65,0.00,,---,0.00,VWS V14.01,2013-05-30 15:02:00,
2013-05-30 11:03:00,85.2,72.1,30.07,East,82,3.0,10.0,65,0.00,,---,0.00,VWS V14.01,2013-05-30 15:03:00,
2013-05-30 11:05:00,85.2,72.1,30.07,North,11,4.0,10.0,65,0.00,,---,0.00,VWS V14.01,2013-05-30 15:05:00,
2013-05-30 11:07:00,85.4,72.3,30.06,NE,48,2.0,5.0,65,0.00,,---,0.00,VWS V14.01,2013-05-30 15:07:00,
2013-05-30 11:08:00,85.4,72.8,30.07,East,100,7.0,7.0,66,0.00,,---,0.00,VWS V14.01,2013-05-30 15:08:00,
2013-05-30 11:09:00,85.5,71.9,30.07,NE,36,4.0,7.0,64,0.00,,---,0.00,VWS V14.01,2013-05-30 15:09:00,
2013-05-30 11:10:00,85.5,72.4,30.07,ENE,64,1.0,8.0,65,0.00,,---,0.00,VWS V14.01,2013-05-30 15:10:00,
2013-05-30 11:12:00,85.5,72.4,30.06,ENE,57,1.0,5.0,65,0.00,,---,0.00,VWS V14.01,2013-05-30 15:12:00,
2013-05-30 11:13:00,85.5,72.4,30.06,ESE,116,5.0,5.0,65,0.00,,---,0.00,VWS V14.01,2013-05-30 15:13:00,
2013-05-30 11:15:00,85.6,72.5,30.06,East,89,3.0,12.0,65,0.00,,---,0.00,VWS V14.01,2013-05-30 15:15:00,
2013-05-30 11:16:00,85.6,72.5,30.06,East,97,3.0,12.0,65,0.00,,---,0.00,VWS V14.01,2013-05-30 15:16:00,
2013-05-30 11:18:00,85.5,72.8,30.06,ENE,78,10.0,10.0,66,0.00,,---,0.00,VWS V14.01,2013-05-30 15:18:00,
2013-05-30 11:19:00,85.5,72.8,30.06,East,87,7.0,11.0,66,0.00,,---,0.00,VWS V14.01,2013-05-30 15:19:00,
2013-05-30 11:21:00,85.5,72.8,30.06,NE,40,3.0,3.0,66,0.00,,---,0.00,VWS V14.01,2013-05-30 15:21:00,
2013-05-30 11:22:00,85.5,72.8,30.06,ENE,68,3.0,3.0,66,0.00,,---,0.00,VWS V14.01,2013-05-30 15:22:00,
2013-05-30 11:24:00,85.7,73.0,30.06,ENE,72,2.0,7.0,66,0.00,,---,0.00,VWS V14.01,2013-05-30 15:24:00,
2013-05-30 11:25:00,85.8,73.1,30.06,East,86,5.0,7.0,66,0.00,,---,0.00,VWS V14.01,2013-05-30 15:25:00,
2013-05-30 11:26:00,85.9,73.2,30.06,East,94,6.0,7.0,66,0.00,,---,0.00,VWS V14.01,2013-05-30 15:26:00,
2013-05-30 11:27:00,86.0,73.3,30.06,NE,49,2.0,6.0,66,0.00,,---,0.00,VWS V14.01,2013-05-30 15:27:00,
2013-05-30 11:30:00,86.2,73.1,30.06,NNE,24,3.0,7.0,65,0.00,,---,0.00,VWS V14.01,2013-05-30 15:30:00,
2013-05-30 11:32:00,86.3,73.2,30.06,ENE,61,5.0,5.0,65,0.00,,---,0.00,VWS V14.01,2013-05-30 15:32:00,
2013-05-30 11:33:00,86.4,73.2,30.06,NE,51,1.0,5.0,65,0.00,,---,0.00,VWS V14.01,2013-05-30 15:33:00,
2013-05-30 11:35:00,86.6,73.4,30.06,ENE,57,3.0,7.0,65,0.00,,---,0.00,VWS V14.01,2013-05-30 15:35:00,
2013-05-30 11:36:00,86.7,73.5,30.06,NE,56,4.0,7.0,65,0.00,,---,0.00,VWS V14.01,2013-05-30 15:36:00,
2013-05-30 11:37:00,86.7,73.1,30.06,ENE,63,3.0,7.0,64,0.00,,---,0.00,VWS V14.01,2013-05-30 15:37:00,
2013-05-30 11:38:00,86.8,73.2,30.06,East,94,3.0,7.0,64,0.00,,---,0.00,VWS V14.01,2013-05-30 15:38:00,
2013-05-30 11:40:00,86.8,73.2,30.06,East,90,11.0,11.0,64,0.00,,---,0.00,VWS V14.01,2013-05-30 15:40:00,
2013-05-30 11:41:00,86.8,72.7,30.06,NE,36,7.0,11.0,63,0.00,,---,0.00,VWS V14.01,2013-05-30 15:41:00,
2013-05-30 11:44:00,86.7,73.5,30.06,NNE,21,4.0,8.0,65,0.00,,---,0.00,VWS V14.01,2013-05-30 15:44:00,
2013-05-30 11:45:00,86.7,73.5,30.06,North,355,3.0,8.0,65,0.00,,---,0.00,VWS V14.01,2013-05-30 15:45:00,
2013-05-30 11:46:00,86.8,73.2,30.06,SE,135,4.0,8.0,64,0.00,,---,0.00,VWS V14.01,2013-05-30 15:46:00,
2013-05-30 11:50:00,86.9,73.3,30.06,NE,52,3.0,9.0,64,0.00,,---,0.00,VWS V14.01,2013-05-30 15:50:00,
2013-05-30 11:51:00,86.9,73.7,30.06,NNE,26,6.0,9.0,65,0.00,,---,0.00,VWS V14.01,2013-05-30 15:51:00,
2013-05-30 11:54:00,87.0,73.8,30.06,NNE,23,2.0,9.0,65,0.00,,---,0.00,VWS V14.01,2013-05-30 15:54:00,
2013-05-30 11:55:00,87.2,74.0,30.06,ESE,102,3.0,9.0,65,0.00,,---,0.00,VWS V14.01,2013-05-30 15:55:00,
2013-05-30 11:56:00,87.2,73.6,30.06,East,88,3.0,9.0,64,0.00,,---,0.00,VWS V14.01,2013-05-30 15:56:00,
2013-05-30 11:58:00,87.3,73.6,30.06,NE,40,3.0,5.0,64,0.00,,---,0.00,VWS V14.01,2013-05-30 15:58:00,
2013-05-30 12:01:00,87.2,72.6,30.05,NE,34,6.0,10.0,62,0.00,,---,0.00,VWS V14.01,2013-05-30 16:01:00,
2013-05-30 12:03:00,87.2,73.1,30.05,NE,56,2.0,11.0,63,0.00,,---,0.00,VWS V14.01,2013-05-30 16:03:00,
2013-05-30 12:04:00,87.2,73.1,30.05,NE,56,2.0,11.0,63,0.00,,---,0.00,VWS V14.01,2013-05-30 16:04:00,
2013-05-30 12:07:00,87.4,72.8,30.05,ESE,106,3.0,5.0,62,0.00,,---,0.00,VWS V14.01,2013-05-30 16:07:00,
2013-05-30 12:08:00,87.5,72.9,30.05,ENE,75,3.0,8.0,62,0.00,,---,0.00,VWS V14.01,2013-05-30 16:08:00,
2013-05-30 12:09:00,87.7,73.1,30.05,NE,54,3.0,8.0,62,0.00,,---,0.00,VWS V14.01,2013-05-30 16:09:00,
2013-05-30 12:10:00,87.8,73.2,30.05,East,87,6.0,9.0,62,0.00,,---,0.00,VWS V14.01,2013-05-30 16:10:00,
2013-05-30 12:12:00,87.9,73.3,30.05,NE,45,6.0,7.0,62,0.00,,---,0.00,VWS V14.01,2013-05-30 16:12:00,
2013-05-30 12:14:00,87.9,73.3,30.05,NE,43,5.0,8.0,62,0.00,,---,0.00,VWS V14.01,2013-05-30 16:14:00,
2013-05-30 12:15:00,87.9,73.3,30.05,NE,55,6.0,8.0,62,0.00,,---,0.00,VWS V14.01,2013-05-30 16:15:00,
2013-05-30 12:17:00,88.0,73.8,30.05,NE,38,4.0,5.0,63,0.00,,---,0.00,VWS V14.01,2013-05-30 16:17:00,
2013-05-30 12:18:00,88.0,73.8,30.05,NE,46,2.0,5.0,63,0.00,,---,0.00,VWS V14.01,2013-05-30 16:18:00,
2013-05-30 12:20:00,88.2,73.6,30.05,NE,36,4.0,6.0,62,0.00,,---,0.00,VWS V14.01,2013-05-30 16:20:00,
2013-05-30 12:21:00,88.3,74.1,30.05,ENE,62,3.0,6.0,63,0.00,,---,0.00,VWS V14.01,2013-05-30 16:21:00,
2013-05-30 12:22:00,88.4,73.7,30.05,East,80,3.0,5.0,62,0.00,,---,0.00,VWS V14.01,2013-05-30 16:22:00,
2013-05-30 12:23:00,88.4,73.7,30.05,NE,47,2.0,5.0,62,0.00,,---,0.00,VWS V14.01,2013-05-30 16:23:00,
2013-05-30 12:24:00,88.4,73.7,30.05,ENE,74,3.0,6.0,62,0.00,,---,0.00,VWS V14.01,2013-05-30 16:24:00,
2013-05-30 12:25:00,88.4,73.2,30.05,North,350,5.0,9.0,61,0.00,,---,0.00,VWS V14.01,2013-05-30 16:25:00,
2013-05-30 12:27:00,88.3,73.6,30.05,NNE,13,3.0,8.0,62,0.00,,---,0.00,VWS V14.01,2013-05-30 16:27:00,
2013-05-30 12:28:00,88.2,73.6,30.05,NE,49,2.0,8.0,62,0.00,,---,0.00,VWS V14.01,2013-05-30 16:28:00,
2013-05-30 12:29:00,88.1,73.4,30.04,ENE,62,5.0,8.0,62,0.00,,---,0.00,VWS V14.01,2013-05-30 16:29:00,
2013-05-30 12:30:00,88.0,73.4,30.04,NE,52,6.0,8.0,62,0.00,,---,0.00,VWS V14.01,2013-05-30 16:30:00,
2013-05-30 12:33:00,87.8,73.6,30.04,NE,43,6.0,7.0,63,0.00,,---,0.00,VWS V14.01,2013-05-30 16:33:00,
2013-05-30 12:34:00,87.7,73.1,30.04,East,81,3.0,7.0,62,0.00,,---,0.00,VWS V14.01,2013-05-30 16:34:00,
2013-05-30 12:35:00,87.7,73.6,30.04,NW,313,3.0,7.0,63,0.00,,---,0.00,VWS V14.01,2013-05-30 16:35:00,
2013-05-30 12:36:00,87.7,73.6,30.04,NE,53,2.0,7.0,63,0.00,,---,0.00,VWS V14.01,2013-05-30 16:36:00,
2013-05-30 12:38:00,87.9,74.2,30.04,NE,48,3.0,8.0,64,0.00,,---,0.00,VWS V14.01,2013-05-30 16:38:00,
2013-05-30 12:39:00,88.0,73.8,30.04,NE,48,3.0,8.0,63,0.00,,---,0.00,VWS V14.01,2013-05-30 16:39:00,
2013-05-30 12:40:00,88.2,74.0,30.04,NE,42,1.0,10.0,63,0.00,,---,0.00,VWS V14.01,2013-05-30 16:40:00,
2013-05-30 12:41:00,88.2,74.0,30.04,ESE,103,3.0,3.0,63,0.00,,---,0.00,VWS V14.01,2013-05-30 16:41:00,
2013-05-30 12:42:00,88.2,74.0,30.04,ENE,75,3.0,3.0,63,0.00,,---,0.00,VWS V14.01,2013-05-30 16:42:00,
2013-05-30 12:43:00,88.4,73.7,30.04,ENE,61,3.0,6.0,62,0.00,,---,0.00,VWS V14.01,2013-05-30 16:43:00,
2013-05-30 12:44:00,88.5,73.8,30.04,East,94,2.0,7.0,62,0.00,,---,0.00,VWS V14.01,2013-05-30 16:44:00,
2013-05-30 12:46:00,88.7,74.0,30.04,ESE,110,4.0,4.0,62,0.00,,---,0.00,VWS V14.01,2013-05-30 16:46:00,
2013-05-30 12:47:00,88.8,74.1,30.04,SSE,149,2.0,4.0,62,0.00,,---,0.00,VWS V14.01,2013-05-30 16:47:00,
2013-05-30 12:49:00,88.9,73.7,30.04,ENE,73,3.0,7.0,61,0.00,,---,0.00,VWS V14.01,2013-05-30 16:49:00,
2013-05-30 12:50:00,88.8,73.6,30.04,ESE,109,2.0,7.0,61,0.00,,---,0.00,VWS V14.01,2013-05-30 16:50:00,
2013-05-30 12:51:00,88.7,73.5,30.04,ESE,103,4.0,7.0,61,0.00,,---,0.00,VWS V14.01,2013-05-30 16:51:00,
2013-05-30 12:52:00,88.6,73.4,30.04,East,98,6.0,7.0,61,0.00,,---,0.00,VWS V14.01,2013-05-30 16:52:00,
2013-05-30 12:54:00,88.5,73.8,30.04,East,94,2.0,7.0,62,0.00,,---,0.00,VWS V14.01,2013-05-30 16:54:00,
2013-05-30 12:55:00,88.5,73.8,30.04,NNE,32,3.0,8.0,62,0.00,,---,0.00,VWS V14.01,2013-05-30 16:55:00,
2013-05-30 12:57:00,88.6,73.9,30.04,NE,40,6.0,6.0,62,0.00,,---,0.00,VWS V14.01,2013-05-30 16:57:00,
2013-05-30 13:01:00,89.0,73.8,30.04,North,355,4.0,7.0,61,0.00,,---,0.00,VWS V14.01,2013-05-30 17:01:00,
2013-05-30 13:02:00,89.1,73.4,30.04,NNE,26,5.0,10.0,60,0.00,,---,0.00,VWS V14.01,2013-05-30 17:02:00,
2013-05-30 13:03:00,89.1,73.4,30.04,NNE,22,3.0,10.0,60,0.00,,---,0.00,VWS V14.01,2013-05-30 17:03:00,
2013-05-30 13:04:00,89.2,74.0,30.04,ENE,74,3.0,10.0,61,0.00,,---,0.00,VWS V14.01,2013-05-30 17:04:00,
2013-05-30 13:07:00,89.4,73.2,30.04,ENE,59,2.0,7.0,59,0.00,,---,0.00,VWS V14.01,2013-05-30 17:07:00,
2013-05-30 13:08:00,89.5,73.3,30.04,ESE,119,4.0,7.0,59,0.00,,---,0.00,VWS V14.01,2013-05-30 17:08:00,
2013-05-30 13:09:00,89.5,73.3,30.04,ESE,107,2.0,7.0,59,0.00,,---,0.00,VWS V14.01,2013-05-30 17:09:00,
2013-05-30 13:10:00,89.6,73.4,30.04,SSW,200,1.0,7.0,59,0.00,,---,0.00,VWS V14.01,2013-05-30 17:10:00,
2013-05-30 13:12:00,89.9,74.2,30.04,NNE,24,4.0,8.0,60,0.00,,---,0.00,VWS V14.01,2013-05-30 17:12:00,
2013-05-30 13:14:00,90.1,73.3,30.04,NE,44,2.0,8.0,58,0.00,,---,0.00,VWS V14.01,2013-05-30 17:14:00,
2013-05-30 13:15:00,90.1,73.3,30.04,East,101,1.0,8.0,58,0.00,,---,0.00,VWS V14.01,2013-05-30 17:15:00,
2013-05-30 13:18:00,90.2,72.9,30.04,East,80,2.0,6.0,57,0.00,,---,0.00,VWS V14.01,2013-05-30 17:18:00,
2013-05-30 13:21:00,90.4,73.6,30.04,East,92,2.0,8.0,58,0.00,,---,0.00,VWS V14.01,2013-05-30 17:21:00,
2013-05-30 13:22:00,90.6,73.3,30.04,NE,40,5.0,8.0,57,0.00,,---,0.00,VWS V14.01,2013-05-30 17:22:00,
2013-05-30 13:23:00,90.7,73.4,30.04,NE,46,7.0,9.0,57,0.00,,---,0.00,VWS V14.01,2013-05-30 17:23:00,
2013-05-30 13:26:00,90.5,73.2,30.04,NNE,26,4.0,10.0,57,0.00,,---,0.00,VWS V14.01,2013-05-30 17:26:00,
2013-05-30 13:27:00,90.4,73.1,30.04,ENE,67,4.0,7.0,57,0.00,,---,0.00,VWS V14.01,2013-05-30 17:27:00,
2013-05-30 13:28:00,90.3,73.5,30.04,NE,46,3.0,7.0,58,0.00,,---,0.00,VWS V14.01,2013-05-30 17:28:00,
2013-05-30 13:31:00,90.1,73.8,30.04,NE,40,7.0,8.0,59,0.00,,---,0.00,VWS V14.01,2013-05-30 17:31:00,
2013-05-30 13:33:00,89.9,73.7,30.04,ENE,78,8.0,8.0,59,0.00,,---,0.00,VWS V14.01,2013-05-30 17:33:00,
2013-05-30 13:34:00,89.8,73.6,30.04,East,82,5.0,8.0,59,0.00,,---,0.00,VWS V14.01,2013-05-30 17:34:00,
2013-05-30 13:36:00,89.5,73.3,30.04,ESE,105,3.0,9.0,59,0.00,,---,0.00,VWS V14.01,2013-05-30 17:36:00,
2013-05-30 13:38:00,89.4,73.7,30.04,NE,46,6.0,9.0,60,0.00,,---,0.00,VWS V14.01,2013-05-30 17:38:00,
2013-05-30 13:39:00,89.3,73.1,30.04,ESE,116,3.0,9.0,59,0.00,,---,0.00,VWS V14.01,2013-05-30 17:39:00,
2013-05-30 13:40:00,89.2,73.5,30.04,NE,44,6.0,9.0,60,0.00,,---,0.00,VWS V14.01,2013-05-30 17:40:00,
2013-05-30 13:41:00,89.1,73.9,30.04,ESE,116,5.0,9.0,61,0.00,,---,0.00,VWS V14.01,2013-05-30 17:41:00,
2013-05-30 13:43:00,89.0,73.8,30.04,SE,138,3.0,8.0,61,0.00,,---,0.00,VWS V14.01,2013-05-30 17:43:00,
2013-05-30 13:44:00,88.7,73.5,30.04,East,84,10.0,17.0,61,0.00,,---,0.00,VWS V14.01,2013-05-30 17:44:00,
2013-05-30 13:46:00,88.3,73.2,30.04,NNE,21,8.0,8.0,61,0.00,,---,0.00,VWS V14.01,2013-05-30 17:46:00,
2013-05-30 13:48:00,87.8,72.2,30.04,East,82,14.0,14.0,60,0.00,,---,0.00,VWS V14.01,2013-05-30 17:48:00,
2013-05-30 13:49:00,87.5,72.4,30.04,SE,136,10.0,14.0,61,0.00,,---,0.00,VWS V14.01,2013-05-30 17:49:00,
2013-05-30 13:51:00,87.1,72.5,30.04,ENE,65,7.0,9.0,62,0.00,,---,0.00,VWS V14.01,2013-05-30 17:51:00,
2013-05-30 13:53:00,86.9,71.8,30.04,NNE,12,7.0,12.0,61,0.00,,---,0.00,VWS V14.01,2013-05-30 17:53:00,
2013-05-30 13:55:00,86.6,72.0,30.04,NE,36,3.0,12.0,62,0.00,,---,0.00,VWS V14.01,2013-05-30 17:55:00,
2013-05-30 13:56:00,86.5,72.4,30.04,ENE,71,8.0,12.0,63,0.00,,---,0.00,VWS V14.01,2013-05-30 17:56:00,
2013-05-30 13:57:00,86.4,72.3,30.04,NE,55,6.0,11.0,63,0.00,,---,0.00,VWS V14.01,2013-05-30 17:57:00,
2013-05-30 13:59:00,86.2,72.1,30.05,ESE,105,3.0,11.0,63,0.00,,---,0.00,VWS V14.01,2013-05-30 17:59:00,
2013-05-30 14:01:00,85.9,72.3,30.04,ENE,57,1.0,11.0,64,0.00,,---,0.00,VWS V14.01,2013-05-30 18:01:00,
2013-05-30 14:03:00,85.6,72.0,30.04,ESE,109,5.0,9.0,64,0.00,,---,0.00,VWS V14.01,2013-05-30 18:03:00,
2013-05-30 14:04:00,85.5,72.4,30.04,NE,56,3.0,9.0,65,0.00,,---,0.00,VWS V14.01,2013-05-30 18:04:00,
2013-05-30 14:05:00,85.4,72.3,30.04,NE,40,2.0,9.0,65,0.00,,---,0.00,VWS V14.01,2013-05-30 18:05:00,
2013-05-30 14:06:00,85.1,72.0,30.04,NE,47,2.0,10.0,65,0.00,,---,0.00,VWS V14.01,2013-05-30 18:06:00,
2013-05-30 14:09:00,84.8,72.2,30.04,NE,40,6.0,10.0,66,0.00,,---,0.00,VWS V14.01,2013-05-30 18:09:00,
2013-05-30 14:10:00,84.8,72.2,30.04,NE,49,3.0,10.0,66,0.00,,---,0.00,VWS V14.01,2013-05-30 18:10:00,
2013-05-30 14:11:00,84.8,72.2,30.04,SE,136,8.0,10.0,66,0.00,,---,0.00,VWS V14.01,2013-05-30 18:11:00,
2013-05-30 14:12:00,84.8,72.6,30.04,NE,55,6.0,7.0,67,0.00,,---,0.00,VWS V14.01,2013-05-30 18:12:00,
2013-05-30 14:14:00,84.7,72.1,30.03,ENE,70,4.0,8.0,66,0.00,,---,0.00,VWS V14.01,2013-05-30 18:14:00,
2013-05-30 14:16:00,84.7,72.5,30.03,ENE,65,7.0,8.0,67,0.00,,---,0.00,VWS V14.01,2013-05-30 18:16:00,
2013-05-30 14:17:00,84.7,72.1,30.03,East,96,5.0,7.0,66,0.00,,---,0.00,VWS V14.01,2013-05-30 18:17:00,
2013-05-30 14:18:00,84.5,72.3,30.04,NNE,30,2.0,7.0,67,0.00,,---,0.00,VWS V14.01,2013-05-30 18:18:00,
2013-05-30 14:20:00,84.5,72.3,30.03,NE,38,6.0,8.0,67,0.00,,---,0.00,VWS V14.01,2013-05-30 18:20:00,
2013-05-30 14:21:00,84.6,72.4,30.03,NNW,348,5.0,8.0,67,0.00,,---,0.00,VWS V14.01,2013-05-30 18:21:00,
2013-05-30 14:22:00,84.7,72.5,30.04,NE,46,6.0,6.0,67,0.00,,---,0.00,VWS V14.01,2013-05-30 18:22:00,
2013-05-30 14:23:00,84.9,72.7,30.04,NE,43,5.0,10.0,67,0.00,,---,0.00,VWS V14.01,2013-05-30 18:23:00,
2013-05-30 14:25:00,85.0,72.8,30.04,ENE,57,4.0,10.0,67,0.00,,---,0.00,VWS V14.01,2013-05-30 18:25:00,
2013-05-30 14:26:00,85.0,72.8,30.04,NE,52,4.0,10.0,67,0.00,,---,0.00,VWS V14.01,2013-05-30 18:26:00,
2013-05-30 14:28:00,85.1,72.5,30.04,ENE,77,3.0,10.0,66,0.00,,---,0.00,VWS V14.01,2013-05-30 18:28:00,
2013-05-30 14:31:00,85.2,73.0,30.04,East,90,5.0,5.0,67,0.00,,---,0.00,VWS V14.01,2013-05-30 18:31:00,
2013-05-30 14:32:00,85.2,73.0,30.04,ENE,69,4.0,5.0,67,0.00,,---,0.00,VWS V14.01,2013-05-30 18:32:00,
2013-05-30 14:35:00,85.2,72.6,30.04,NE,36,6.0,10.0,66,0.00,,---,0.00,VWS V14.01,2013-05-30 18:35:00,
2013-05-30 14:37:00,85.1,72.5,30.04,East,82,2.0,9.0,66,0.00,,---,0.00,VWS V14.01,2013-05-30 18:37:00,
2013-05-30 14:40:00,84.9,72.7,30.04,ENE,59,3.0,9.0,67,0.00,,---,0.00,VWS V14.01,2013-05-30 18:40:00,
2013-05-30 14:43:00,85.0,72.8,30.04,NE,52,2.0,8.0,67,0.00,,---,0.00,VWS V14.01,2013-05-30 18:43:00,
2013-05-30 14:45:00,85.1,73.4,30.03,East,85,3.0,8.0,68,0.00,,---,0.00,VWS V14.01,2013-05-30 18:45:00,
2013-05-30 14:46:00,85.1,73.4,30.03,East,83,2.0,8.0,68,0.00,,---,0.00,VWS V14.01,2013-05-30 18:46:00,
2013-05-30 14:47:00,85.1,73.4,30.04,NE,42,6.0,6.0,68,0.00,,---,0.00,VWS V14.01,2013-05-30 18:47:00,
2013-05-30 14:49:00,85.1,73.4,30.04,ESE,119,8.0,8.0,68,0.00,,---,0.00,VWS V14.01,2013-05-30 18:49:00,
2013-05-30 14:50:00,85.0,72.8,30.03,ENE,68,8.0,8.0,67,0.00,,---,0.00,VWS V14.01,2013-05-30 18:50:00,
2013-05-30 14:51:00,84.9,73.2,30.04,ENE,60,2.0,8.0,68,0.00,,---,0.00,VWS V14.01,2013-05-30 18:51:00,
2013-05-30 14:53:00,84.7,73.0,30.03,NE,36,4.0,7.0,68,0.00,,---,0.00,VWS V14.01,2013-05-30 18:53:00,
2013-05-30 14:54:00,84.5,72.8,30.04,NE,46,2.0,7.0,68,0.00,,---,0.00,VWS V14.01,2013-05-30 18:54:00,
2013-05-30 14:55:00,84.5,72.8,30.04,NNE,26,4.0,7.0,68,0.00,,---,0.00,VWS V14.01,2013-05-30 18:55:00,
2013-05-30 14:57:00,84.4,72.7,30.03,NE,53,5.0,7.0,68,0.00,,---,0.00,VWS V14.01,2013-05-30 18:57:00,
2013-05-30 14:58:00,84.4,72.7,30.03,NE,45,3.0,7.0,68,0.00,,---,0.00,VWS V14.01,2013-05-30 18:58:00,
2013-05-30 15:00:00,84.5,72.8,30.03,ENE,74,3.0,9.0,68,0.00,,---,0.00,VWS V14.01,2013-05-30 19:00:00,
2013-05-30 15:01:00,84.5,73.2,30.03,ENE,75,1.0,9.0,69,0.00,,---,0.00,VWS V14.01,2013-05-30 19:01:00,
2013-05-30 15:03:00,84.7,73.0,30.03,NNE,13,5.0,7.0,68,0.00,,---,0.00,VWS V14.01,2013-05-30 19:03:00,
2013-05-30 15:04:00,84.7,73.0,30.03,NE,45,2.0,7.0,68,0.00,,---,0.00,VWS V14.01,2013-05-30 19:04:00,
2013-05-30 15:06:00,84.9,73.2,30.03,NNW,346,5.0,7.0,68,0.00,,---,0.00,VWS V14.01,2013-05-30 19:06:00,
2013-05-30 15:07:00,85.0,73.3,30.03,ENE,70,3.0,4.0,68,0.00,,---,0.00,VWS V14.01,2013-05-30 19:07:00,
2013-05-30 15:08:00,85.1,72.9,30.03,NE,46,3.0,6.0,67,0.00,,---,0.00,VWS V14.01,2013-05-30 19:08:00,
2013-05-30 15:09:00,85.1,72.9,30.02,East,98,5.0,6.0,67,0.00,,---,0.00,VWS V14.01,2013-05-30 19:09:00,
2013-05-30 15:12:00,85.2,73.0,30.03,SE,130,4.0,11.0,67,0.00,,---,0.00,VWS V14.01,2013-05-30 19:12:00,
2013-05-30 15:14:00,85.2,73.4,30.03,NNE,19,3.0,11.0,68,0.00,,---,0.00,VWS V14.01,2013-05-30 19:14:00,
2013-05-30 15:15:00,85.3,73.1,30.02,ENE,63,3.0,11.0,67,0.00,,---,0.00,VWS V14.01,2013-05-30 19:15:00,
2013-05-30 15:18:00,85.5,73.7,30.02,ENE,66,2.0,3.0,68,0.00,,---,0.00,VWS V14.01,2013-05-30 19:18:00,
2013-05-30 15:19:00,85.8,74.0,30.02,ENE,67,1.0,3.0,68,0.00,,---,0.00,VWS V14.01,2013-05-30 19:19:00,
2013-05-30 15:20:00,85.9,74.1,30.02,NE,46,3.0,3.0,68,0.00,,---,0.00,VWS V14.01,2013-05-30 19:20:00,
2013-05-30 15:21:00,86.2,74.0,30.02,NE,44,2.0,3.0,67,0.00,,---,0.00,VWS V14.01,2013-05-30 19:21:00,
2013-05-30 15:24:00,86.7,74.4,30.02,East,84,5.0,8.0,67,0.00,,---,0.00,VWS V14.01,2013-05-30 19:24:00,
2013-05-30 15:25:00,86.7,74.4,30.02,NE,47,5.0,8.0,67,0.00,,---,0.00,VWS V14.01,2013-05-30 19:25:00,
2013-05-30 15:26:00,86.9,74.2,30.02,NE,55,5.0,5.0,66,0.00,,---,0.00,VWS V14.01,2013-05-30 19:26:00,
2013-05-30 15:30:00,87.0,74.3,30.01,NE,43,2.0,9.0,66,0.00,,---,0.00,VWS V14.01,2013-05-30 19:30:00,
2013-05-30 15:31:00,86.9,74.2,30.01,NE,56,3.0,9.0,66,0.00,,---,0.00,VWS V14.01,2013-05-30 19:31:00,
2013-05-30 15:32:00,86.9,74.2,30.01,NNE,22,1.0,4.0,66,0.00,,---,0.00,VWS V14.01,2013-05-30 19:32:00,
2013-05-30 15:35:00,87.1,74.4,30.01,NE,38,4.0,10.0,66,0.00,,---,0.00,VWS V14.01,2013-05-30 19:35:00,
2013-05-30 15:36:00,87.0,74.7,30.01,NNE,14,1.0,10.0,67,0.00,,---,0.00,VWS V14.01,2013-05-30 19:36:00,
2013-05-30 15:37:00,87.1,74.8,30.01,ENE,59,4.0,6.0,67,0.00,,---,0.00,VWS V14.01,2013-05-30 19:37:00,
2013-05-30 15:38:00,87.0,74.3,30.01,East,91,6.0,7.0,66,0.00,,---,0.00,VWS V14.01,2013-05-30 19:38:00,
2013-05-30 15:39:00,87.0,74.3,30.01,North,9,4.0,7.0,66,0.00,,---,0.00,VWS V14.01,2013-05-30 19:39:00,
2013-05-30 15:40:00,87.0,74.3,30.01,ESE,118,3.0,10.0,66,0.00,,---,0.00,VWS V14.01,2013-05-30 19:40:00,
2013-05-30 15:42:00,86.9,74.2,30.01,NE,56,3.0,8.0,66,0.00,,---,0.00,VWS V14.01,2013-05-30 19:42:00,
2013-05-30 15:43:00,87.0,74.3,30.01,NNE,32,4.0,8.0,66,0.00,,---,0.00,VWS V14.01,2013-05-30 19:43:00,
2013-05-30 15:45:00,87.0,74.3,30.01,NE,40,2.0,8.0,66,0.00,,---,0.00,VWS V14.01,2013-05-30 19:45:00,
2013-05-30 15:46:00,87.1,73.9,30.01,East,79,3.0,5.0,65,0.00,,---,0.00,VWS V14.01,2013-05-30 19:46:00,
2013-05-30 15:47:00,87.2,74.0,30.01,ESE,102,2.0,5.0,65,0.00,,---,0.00,VWS V14.01,2013-05-30 19:47:00,
2013-05-30 15:49:00,87.3,74.1,30.01,East,98,5.0,5.0,65,0.00,,---,0.00,VWS V14.01,2013-05-30 19:49:00,
2013-05-30 15:50:00,87.4,74.2,30.01,ENE,77,2.0,5.0,65,0.00,,---,0.00,VWS V14.01,2013-05-30 19:50:00,
2013-05-30 15:51:00,87.4,74.2,30.01,East,90,3.0,5.0,65,0.00,,---,0.00,VWS V14.01,2013-05-30 19:51:00,
2013-05-30 15:53:00,87.6,73.9,30.01,ENE,68,3.0,8.0,64,0.00,,---,0.00,VWS V14.01,2013-05-30 19:53:00,
2013-05-30 15:54:00,87.8,74.1,30.01,ESE,108,2.0,8.0,64,0.00,,---,0.00,VWS V14.01,2013-05-30 19:54:00,
2013-05-30 15:56:00,87.9,73.7,30.00,NE,38,4.0,6.0,63,0.00,,---,0.00,VWS V14.01,2013-05-30 19:56:00,
2013-05-30 15:58:00,87.9,73.7,30.01,NNE,26,2.0,8.0,63,0.00,,---,0.00,VWS V14.01,2013-05-30 19:58:00,
2013-05-30 16:01:00,87.9,73.3,30.00,ENE,57,4.0,8.0,62,0.00,,---,0.00,VWS V14.01,2013-05-30 20:01:00,
2013-05-30 16:02:00,88.0,73.4,30.00,East,86,2.0,5.0,62,0.00,,---,0.00,VWS V14.01,2013-05-30 20:02:00,
2013-05-30 16:03:00,88.1,73.4,30.00,East,86,5.0,6.0,62,0.00,,---,0.00,VWS V14.01,2013-05-30 20:03:00,
2013-05-30 16:06:00,88.1,73.4,30.00,East,92,3.0,5.0,62,0.00,,---,0.00,VWS V14.01,2013-05-30 20:06:00,
2013-05-30 16:07:00,88.2,73.6,30.00,NE,46,3.0,5.0,62,0.00,,---,0.00,VWS V14.01,2013-05-30 20:07:00,
2013-05-30 16:09:00,88.2,74.0,30.00,ESE,109,5.0,5.0,63,0.00,,---,0.00,VWS V14.01,2013-05-30 20:09:00,
2013-05-30 16:11:00,88.2,73.6,30.00,NNE,31,4.0,5.0,62,0.00,,---,0.00,VWS V14.01,2013-05-30 20:11:00,
2013-05-30 16:12:00,88.2,73.6,30.00,NE,41,3.0,5.0,62,0.00,,---,0.00,VWS V14.01,2013-05-30 20:12:00,
2013-05-30 16:14:00,88.1,72.5,30.00,ENE,71,5.0,10.0,60,0.00,,---,0.00,VWS V14.01,2013-05-30 20:14:00,
2013-05-30 16:15:00,88.0,72.4,30.00,East,86,3.0,10.0,60,0.00,,---,0.00,VWS V14.01,2013-05-30 20:15:00,
2013-05-30 16:17:00,88.0,71.9,30.00,East,88,6.0,8.0,59,0.00,,---,0.00,VWS V14.01,2013-05-30 20:17:00,
2013-05-30 16:18:00,88.0,71.9,30.00,East,91,3.0,8.0,59,0.00,,---,0.00,VWS V14.01,2013-05-30 20:18:00,
2013-05-30 16:20:00,88.1,72.0,30.00,NE,53,3.0,9.0,59,0.00,,---,0.00,VWS V14.01,2013-05-30 20:20:00,
2013-05-30 16:21:00,88.2,72.1,30.00,NNE,15,4.0,9.0,59,0.00,,---,0.00,VWS V14.01,2013-05-30 20:21:00,
2013-05-30 16:23:00,88.2,72.1,30.00,East,91,3.0,7.0,59,0.00,,---,0.00,VWS V14.01,2013-05-30 20:23:00,
2013-05-30 16:24:00,88.2,72.1,30.00,ENE,76,4.0,8.0,59,0.00,,---,0.00,VWS V14.01,2013-05-30 20:24:00,
2013-05-30 16:25:00,88.1,72.0,30.00,NNE,29,4.0,8.0,59,0.00,,---,0.00,VWS V14.01,2013-05-30 20:25:00,
2013-05-30 16:27:00,87.9,71.8,30.00,ENE,64,7.0,7.0,59,0.00,,---,0.00,VWS V14.01,2013-05-30 20:27:00,
2013-05-30 16:29:00,87.9,71.8,30.00,NE,52,3.0,7.0,59,0.00,,---,0.00,VWS V14.01,2013-05-30 20:29:00,
2013-05-30 16:30:00,87.8,71.7,30.00,South,170,3.0,11.0,59,0.00,,---,0.00,VWS V14.01,2013-05-30 20:30:00,
2013-05-30 16:32:00,87.7,72.1,30.00,NNE,22,4.0,9.0,60,0.00,,---,0.00,VWS V14.01,2013-05-30 20:32:00,
2013-05-30 16:34:00,87.7,72.1,29.99,NE,36,2.0,9.0,60,0.00,,---,0.00,VWS V14.01,2013-05-30 20:34:00,
2013-05-30 16:36:00,87.6,72.5,30.00,NNE,26,3.0,9.0,61,0.00,,---,0.00,VWS V14.01,2013-05-30 20:36:00,
2013-05-30 16:37:00,87.5,72.4,30.00,ESE,107,11.0,11.0,61,0.00,,---,0.00,VWS V14.01,2013-05-30 20:37:00,
2013-05-30 16:39:00,87.4,72.3,30.00,ENE,74,5.0,13.0,61,0.00,,---,0.00,VWS V14.01,2013-05-30 20:39:00,
2013-05-30 16:41:00,87.3,72.2,30.00,NE,34,3.0,3.0,61,0.00,,---,0.00,VWS V14.01,2013-05-30 20:41:00,
2013-05-30 16:43:00,87.4,72.3,30.00,ENE,76,4.0,11.0,61,0.00,,---,0.00,VWS V14.01,2013-05-30 20:43:00,
2013-05-30 16:44:00,87.4,72.3,30.00,NE,51,3.0,11.0,61,0.00,,---,0.00,VWS V14.01,2013-05-30 20:44:00,
2013-05-30 16:45:00,87.5,72.4,30.00,East,82,3.0,11.0,61,0.00,,---,0.00,VWS V14.01,2013-05-30 20:45:00,
2013-05-30 16:47:00,87.6,71.5,30.00,ENE,57,7.0,7.0,59,0.00,,---,0.00,VWS V14.01,2013-05-30 20:47:00,
2013-05-30 16:48:00,87.7,71.6,30.00,NE,42,3.0,7.0,59,0.00,,---,0.00,VWS V14.01,2013-05-30 20:48:00,
2013-05-30 16:49:00,87.7,72.1,30.00,East,91,2.0,7.0,60,0.00,,---,0.00,VWS V14.01,2013-05-30 20:49:00,
2013-05-30 16:50:00,87.8,72.2,30.00,ENE,71,2.0,7.0,60,0.00,,---,0.00,VWS V14.01,2013-05-30 20:50:00,
2013-05-30 16:51:00,87.9,71.8,30.00,East,79,10.0,10.0,59,0.00,,---,0.00,VWS V14.01,2013-05-30 20:51:00,
2013-05-30 16:53:00,87.8,71.2,30.00,NE,42,3.0,10.0,58,0.00,,---,0.00,VWS V14.01,2013-05-30 20:53:00,
2013-05-30 16:54:00,87.8,71.7,29.99,East,101,7.0,10.0,59,0.00,,---,0.00,VWS V14.01,2013-05-30 20:54:00,
2013-05-30 16:55:00,87.8,71.7,29.99,North,5,3.0,10.0,59,0.00,,---,0.00,VWS V14.01,2013-05-30 20:55:00,
2013-05-30 16:56:00,87.8,71.7,29.99,SE,124,4.0,10.0,59,0.00,,---,0.00,VWS V14.01,2013-05-30 20:56:00,
2013-05-30 16:59:00,87.9,71.3,30.00,SSE,168,4.0,9.0,58,0.00,,---,0.00,VWS V14.01,2013-05-30 20:59:00,
2013-05-30 17:01:00,87.8,71.2,30.00,ESE,117,3.0,9.0,58,0.00,,---,0.00,VWS V14.01,2013-05-30 21:01:00,
2013-05-30 17:03:00,87.8,71.7,30.00,NE,53,5.0,7.0,59,0.00,,---,0.00,VWS V14.01,2013-05-30 21:03:00,
2013-05-30 17:04:00,87.8,72.2,30.00,ENE,66,7.0,7.0,60,0.00,,---,0.00,VWS V14.01,2013-05-30 21:04:00,
2013-05-30 17:05:00,87.7,72.1,30.00,NNW,327,5.0,8.0,60,0.00,,---,0.00,VWS V14.01,2013-05-30 21:05:00,
2013-05-30 17:07:00,87.5,71.9,30.00,East,84,2.0,4.0,60,0.00,,---,0.00,VWS V14.01,2013-05-30 21:07:00,
2013-05-30 17:08:00,87.5,71.9,30.00,NE,51,2.0,6.0,60,0.00,,---,0.00,VWS V14.01,2013-05-30 21:08:00,
2013-05-30 17:10:00,87.5,72.4,30.00,ESE,120,7.0,7.0,61,0.00,,---,0.00,VWS V14.01,2013-05-30 21:10:00,
2013-05-30 17:11:00,87.5,72.4,30.00,NNE,32,5.0,8.0,61,0.00,,---,0.00,VWS V14.01,2013-05-30 21:11:00,
2013-05-30 17:13:00,87.6,72.5,30.00,NE,47,5.0,7.0,61,0.00,,---,0.00,VWS V14.01,2013-05-30 21:13:00,
2013-05-30 17:15:00,87.7,72.6,30.00,ENE,71,2.0,7.0,61,0.00,,---,0.00,VWS V14.01,2013-05-30 21:15:00,
2013-05-30 17:16:00,87.8,72.7,30.00,NE,40,3.0,7.0,61,0.00,,---,0.00,VWS V14.01,2013-05-30 21:16:00,
2013-05-30 17:17:00,88.0,72.4,30.00,ENE,75,5.0,5.0,60,0.00,,---,0.00,VWS V14.01,2013-05-30 21:17:00,
2013-05-30 17:19:00,88.1,72.5,30.00,East,89,5.0,10.0,60,0.00,,---,0.00,VWS V14.01,2013-05-30 21:19:00,
2013-05-30 17:21:00,88.0,72.9,30.00,NE,53,4.0,5.0,61,0.00,,---,0.00,VWS V14.01,2013-05-30 21:21:00,
2013-05-30 17:22:00,87.9,72.8,30.00,East,85,3.0,5.0,61,0.00,,---,0.00,VWS V14.01,2013-05-30 21:22:00,
2013-05-30 17:23:00,87.8,73.2,30.00,NE,56,3.0,9.0,62,0.00,,---,0.00,VWS V14.01,2013-05-30 21:23:00,
2013-05-30 17:24:00,87.6,73.0,30.00,ESE,108,8.0,9.0,62,0.00,,---,0.00,VWS V14.01,2013-05-30 21:24:00,
2013-05-30 17:26:00,87.4,72.3,30.00,NE,55,2.0,9.0,61,0.00,,---,0.00,VWS V14.01,2013-05-30 21:26:00,
2013-05-30 17:29:00,87.0,72.4,30.00,NNE,26,2.0,7.0,62,0.00,,---,0.00,VWS V14.01,2013-05-30 21:29:00,
2013-05-30 17:30:00,87.0,72.4,30.00,NE,36,3.0,9.0,62,0.00,,---,0.00,VWS V14.01,2013-05-30 21:30:00,
2013-05-30 17:31:00,86.9,72.3,30.00,NE,53,4.0,5.0,62,0.00,,---,0.00,VWS V14.01,2013-05-30 21:31:00,
2013-05-30 17:34:00,86.7,72.1,30.00,NNE,28,3.0,10.0,62,0.00,,---,0.00,VWS V14.01,2013-05-30 21:34:00,
2013-05-30 17:35:00,86.7,72.1,30.00,North,11,1.0,10.0,62,0.00,,---,0.00,VWS V14.01,2013-05-30 21:35:00,
2013-05-30 17:36:00,86.6,72.5,30.00,NE,56,2.0,6.0,63,0.00,,---,0.00,VWS V14.01,2013-05-30 21:36:00,
2013-05-30 17:37:00,86.6,72.5,30.00,ESE,111,3.0,6.0,63,0.00,,---,0.00,VWS V14.01,2013-05-30 21:37:00,
2013-05-30 17:40:00,86.4,72.3,30.00,ESE,106,2.0,6.0,63,0.00,,---,0.00,VWS V14.01,2013-05-30 21:40:00,
2013-05-30 17:41:00,86.3,72.7,30.00,ENE,57,3.0,6.0,64,0.00,,---,0.00,VWS V14.01,2013-05-30 21:41:00,
2013-05-30 17:42:00,86.2,72.6,30.00,East,88,6.0,7.0,64,0.00,,---,0.00,VWS V14.01,2013-05-30 21:42:00,
2013-05-30 17:43:00,86.1,72.0,30.00,NE,43,4.0,7.0,63,0.00,,---,0.00,VWS V14.01,2013-05-30 21:43:00,
2013-05-30 17:46:00,85.7,71.2,30.00,East,93,3.0,7.0,62,0.00,,---,0.00,VWS V14.01,2013-05-30 21:46:00,
2013-05-30 17:47:00,85.5,71.5,30.00,NNE,21,3.0,7.0,63,0.00,,---,0.00,VWS V14.01,2013-05-30 21:47:00,
2013-05-30 17:48:00,85.5,71.5,30.00,NE,42,3.0,8.0,63,0.00,,---,0.00,VWS V14.01,2013-05-30 21:48:00,
2013-05-30 17:49:00,85.4,71.4,30.00,ESE,114,1.0,8.0,63,0.00,,---,0.00,VWS V14.01,2013-05-30 21:49:00,
2013-05-30 17:50:00,85.4,71.4,30.00,NE,49,4.0,8.0,63,0.00,,---,0.00,VWS V14.01,2013-05-30 21:50:00,
2013-05-30 17:51:00,85.4,71.8,30.00,ENE,73,3.0,4.0,64,0.00,,---,0.00,VWS V14.01,2013-05-30 21:51:00,
2013-05-30 17:54:00,85.4,71.4,30.00,East,94,5.0,11.0,63,0.00,,---,0.00,VWS V14.01,2013-05-30 21:54:00,
2013-05-30 17:55:00,85.4,71.4,30.00,NNE,14,4.0,11.0,63,0.00,,---,0.00,VWS V14.01,2013-05-30 21:55:00,
2013-05-30 17:57:00,85.4,70.9,30.00,ESE,105,4.0,9.0,62,0.00,,---,0.00,VWS V14.01,2013-05-30 21:57:00,
2013-05-30 17:58:00,85.3,70.8,30.00,NNW,348,3.0,9.0,62,0.00,,---,0.00,VWS V14.01,2013-05-30 21:58:00,
2013-05-30 18:01:00,85.4,70.9,30.00,ENE,67,5.0,9.0,62,0.00,,---,0.00,VWS V14.01,2013-05-30 22:01:00,
2013-05-30 18:02:00,85.4,70.4,29.99,ENE,58,7.0,11.0,61,0.00,,---,0.00,VWS V14.01,2013-05-30 22:02:00,
2013-05-30 18:03:00,85.4,70.4,29.99,NE,53,2.0,11.0,61,0.00,,---,0.00,VWS V14.01,2013-05-30 22:03:00,
2013-05-30 18:06:00,85.2,70.7,30.00,ENE,74,4.0,11.0,62,0.00,,---,0.00,VWS V14.01,2013-05-30 22:06:00,
2013-05-30 18:08:00,85.1,70.6,30.00,NE,42,7.0,8.0,62,0.00,,---,0.00,VWS V14.01,2013-05-30 22:08:00,
2013-05-30 18:10:00,84.9,70.9,29.99,North,360,3.0,8.0,63,0.00,,---,0.00,VWS V14.01,2013-05-30 22:10:00,
2013-05-30 18:11:00,84.8,70.8,29.99,ENE,65,5.0,7.0,63,0.00,,---,0.00,VWS V14.01,2013-05-30 22:11:00,
2013-05-30 18:13:00,84.6,70.6,29.99,SE,134,2.0,7.0,63,0.00,,---,0.00,VWS V14.01,2013-05-30 22:13:00,
2013-05-30 18:14:00,84.5,70.5,29.99,ENE,72,4.0,7.0,63,0.00,,---,0.00,VWS V14.01,2013-05-30 22:14:00,
2013-05-30 18:16:00,84.3,70.3,29.99,NE,53,5.0,10.0,63,0.00,,---,0.00,VWS V14.01,2013-05-30 22:16:00,
2013-05-30 18:17:00,84.3,70.3,29.99,ENE,69,3.0,7.0,63,0.00,,---,0.00,VWS V14.01,2013-05-30 22:17:00,
2013-05-30 18:18:00,84.1,69.7,29.99,East,80,1.0,9.0,62,0.00,,---,0.00,VWS V14.01,2013-05-30 22:18:00,
2013-05-30 18:20:00,84.1,69.7,29.99,NNE,24,4.0,9.0,62,0.00,,---,0.00,VWS V14.01,2013-05-30 22:20:00,
2013-05-30 18:21:00,84.0,69.1,29.99,SE,131,3.0,6.0,61,0.00,,---,0.00,VWS V14.01,2013-05-30 22:21:00,
2013-05-30 18:22:00,84.0,69.1,29.99,ENE,74,2.0,6.0,61,0.00,,---,0.00,VWS V14.01,2013-05-30 22:22:00,
2013-05-30 18:24:00,83.9,69.0,29.99,ENE,64,4.0,8.0,61,0.00,,---,0.00,VWS V14.01,2013-05-30 22:24:00,
2013-05-30 18:25:00,83.9,69.0,29.99,ENE,60,3.0,9.0,61,0.00,,---,0.00,VWS V14.01,2013-05-30 22:25:00,
2013-05-30 18:26:00,83.8,69.4,30.00,NE,53,1.0,3.0,62,0.00,,---,0.00,VWS V14.01,2013-05-30 22:26:00,
2013-05-30 18:28:00,83.9,69.5,30.00,ESE,117,2.0,9.0,62,0.00,,---,0.00,VWS V14.01,2013-05-30 22:28:00,
2013-05-30 18:30:00,83.9,69.5,29.99,NE,50,2.0,9.0,62,0.00,,---,0.00,VWS V14.01,2013-05-30 22:30:00,
2013-05-30 18:32:00,83.9,69.5,30.00,East,80,3.0,5.0,62,0.00,,---,0.00,VWS V14.01,2013-05-30 22:32:00,
2013-05-30 18:33:00,83.9,70.0,30.00,ENE,71,3.0,8.0,63,0.00,,---,0.00,VWS V14.01,2013-05-30 22:33:00,
2013-05-30 18:34:00,83.9,70.0,30.00,ENE,58,3.0,8.0,63,0.00,,---,0.00,VWS V14.01,2013-05-30 22:34:00,
2013-05-30 18:35:00,83.9,70.0,30.00,ENE,75,4.0,8.0,63,0.00,,---,0.00,VWS V14.01,2013-05-30 22:35:00,
2013-05-30 18:37:00,83.8,70.3,30.00,East,79,5.0,7.0,64,0.00,,---,0.00,VWS V14.01,2013-05-30 22:37:00,
2013-05-30 18:38:00,83.8,70.3,30.00,North,11,4.0,7.0,64,0.00,,---,0.00,VWS V14.01,2013-05-30 22:38:00,
2013-05-30 18:39:00,83.8,70.3,30.00,NNE,29,3.0,8.0,64,0.00,,---,0.00,VWS V14.01,2013-05-30 22:39:00,
2013-05-30 18:40:00,83.7,70.2,30.00,ESE,103,4.0,8.0,64,0.00,,---,0.00,VWS V14.01,2013-05-30 22:40:00,
2013-05-30 18:41:00,83.7,70.2,30.00,NNE,20,2.0,9.0,64,0.00,,---,0.00,VWS V14.01,2013-05-30 22:41:00,
2013-05-30 18:43:00,83.6,70.1,30.00,NNW,348,5.0,7.0,64,0.00,,---,0.00,VWS V14.01,2013-05-30 22:43:00,
2013-05-30 18:44:00,83.4,69.9,30.00,NE,36,4.0,7.0,64,0.00,,---,0.00,VWS V14.01,2013-05-30 22:44:00,
2013-05-30 18:46:00,83.2,70.2,30.00,ENE,61,4.0,7.0,65,0.00,,---,0.00,VWS V14.01,2013-05-30 22:46:00,
2013-05-30 18:47:00,83.1,70.1,30.01,ENE,78,2.0,8.0,65,0.00,,---,0.00,VWS V14.01,2013-05-30 22:47:00,
2013-05-30 18:48:00,83.1,70.6,30.01,NE,40,2.0,8.0,66,0.00,,---,0.00,VWS V14.01,2013-05-30 22:48:00,
2013-05-30 18:50:00,83.0,70.5,30.00,ESE,108,5.0,8.0,66,0.00,,---,0.00,VWS V14.01,2013-05-30 22:50:00,
2013-05-30 18:52:00,83.0,70.9,30.01,NE,53,1.0,4.0,67,0.00,,---,0.00,VWS V14.01,2013-05-30 22:52:00,
2013-05-30 18:53:00,83.0,70.9,30.01,East,94,8.0,8.0,67,0.00,,---,0.00,VWS V14.01,2013-05-30 22:53:00,
2013-05-30 18:55:00,83.0,70.9,30.01,NE,44,3.0,8.0,67,0.00,,---,0.00,VWS V14.01,2013-05-30 22:55:00,
2013-05-30 18:56:00,83.0,70.9,30.01,ENE,65,3.0,3.0,67,0.00,,---,0.00,VWS V14.01,2013-05-30 22:56:00,
2013-05-30 18:57:00,83.0,70.5,30.01,ENE,70,3.0,5.0,66,0.00,,---,0.00,VWS V14.01,2013-05-30 22:57:00,
2013-05-30 18:58:00,83.0,70.5,30.01,ESE,103,8.0,8.0,66,0.00,,---,0.00,VWS V14.01,2013-05-30 22:58:00,
2013-05-30 19:00:00,83.0,70.5,30.01,East,84,1.0,11.0,66,0.00,,---,0.00,VWS V14.01,2013-05-30 23:00:00,
2013-05-30 19:02:00,83.0,70.9,30.01,ENE,62,7.0,7.0,67,0.00,,---,0.00,VWS V14.01,2013-05-30 23:02:00,
2013-05-30 19:03:00,83.0,70.9,30.01,ENE,59,2.0,7.0,67,0.00,,---,0.00,VWS V14.01,2013-05-30 23:03:00,
2013-05-30 19:04:00,82.9,70.8,30.01,NE,52,2.0,7.0,67,0.00,,---,0.00,VWS V14.01,2013-05-30 23:04:00,
2013-05-30 19:05:00,82.9,70.8,30.01,ENE,67,4.0,9.0,67,0.00,,---,0.00,VWS V14.01,2013-05-30 23:05:00,
2013-05-30 19:06:00,82.9,70.8,30.01,North,5,3.0,9.0,67,0.00,,---,0.00,VWS V14.01,2013-05-30 23:06:00,
2013-05-30 19:08:00,82.9,70.8,30.01,ENE,73,9.0,9.0,67,0.00,,---,0.00,VWS V14.01,2013-05-30 23:08:00,
2013-05-30 19:09:00,82.9,70.8,30.01,ESE,103,3.0,9.0,67,0.00,,---,0.00,VWS V14.01,2013-05-30 23:09:00,
2013-05-30 19:11:00,82.9,70.8,30.01,NE,44,3.0,5.0,67,0.00,,---,0.00,VWS V14.01,2013-05-30 23:11:00,
2013-05-30 19:12:00,82.9,70.8,30.01,ENE,69,3.0,7.0,67,0.00,,---,0.00,VWS V14.01,2013-05-30 23:12:00,
2013-05-30 19:13:00,82.8,70.7,30.01,ENE,75,2.0,8.0,67,0.00,,---,0.00,VWS V14.01,2013-05-30 23:13:00,
2013-05-30 19:14:00,82.8,70.7,30.01,NE,48,3.0,8.0,67,0.00,,---,0.00,VWS V14.01,2013-05-30 23:14:00,
2013-05-30 19:16:00,82.8,70.7,30.01,NE,53,3.0,8.0,67,0.00,,---,0.00,VWS V14.01,2013-05-30 23:16:00,
2013-05-30 19:17:00,82.9,70.8,30.01,ENE,62,3.0,8.0,67,0.00,,---,0.00,VWS V14.01,2013-05-30 23:17:00,
2013-05-30 19:19:00,82.9,70.8,30.01,SE,140,3.0,8.0,67,0.00,,---,0.00,VWS V14.01,2013-05-30 23:19:00,
2013-05-30 19:20:00,82.9,70.8,30.01,East,97,2.0,8.0,67,0.00,,---,0.00,VWS V14.01,2013-05-30 23:20:00,
2013-05-30 19:21:00,82.9,70.8,30.01,ENE,64,2.0,8.0,67,0.00,,---,0.00,VWS V14.01,2013-05-30 23:21:00,
2013-05-30 19:22:00,82.9,71.3,30.01,SE,135,6.0,6.0,68,0.00,,---,0.00,VWS V14.01,2013-05-30 23:22:00,
2013-05-30 19:24:00,82.9,71.3,30.01,East,99,5.0,6.0,68,0.00,,---,0.00,VWS V14.01,2013-05-30 23:24:00,
2013-05-30 19:26:00,82.8,71.2,30.02,ENE,64,9.0,9.0,68,0.00,,---,0.00,VWS V14.01,2013-05-30 23:26:00,
2013-05-30 19:27:00,82.8,71.2,30.01,East,93,8.0,9.0,68,0.00,,---,0.00,VWS V14.01,2013-05-30 23:27:00,
2013-05-30 19:28:00,82.8,71.2,30.02,ENE,65,2.0,9.0,68,0.00,,---,0.00,VWS V14.01,2013-05-30 23:28:00,
2013-05-30 19:29:00,82.7,71.1,30.02,NNE,30,5.0,9.0,68,0.00,,---,0.00,VWS V14.01,2013-05-30 23:29:00,
2013-05-30 19:31:00,82.7,71.1,30.02,ENE,60,4.0,9.0,68,0.00,,---,0.00,VWS V14.01,2013-05-30 23:31:00,
2013-05-30 19:34:00,82.6,71.0,30.02,NNE,22,4.0,7.0,68,0.00,,---,0.00,VWS V14.01,2013-05-30 23:34:00,
2013-05-30 19:35:00,82.6,71.0,30.02,ENE,75,3.0,8.0,68,0.00,,---,0.00,VWS V14.01,2013-05-30 23:35:00,
2013-05-30 19:36:00,82.6,71.0,30.01,NE,35,4.0,9.0,68,0.00,,---,0.00,VWS V14.01,2013-05-30 23:36:00,
2013-05-30 19:37:00,82.6,71.0,30.01,NE,40,2.0,9.0,68,0.00,,---,0.00,VWS V14.01,2013-05-30 23:37:00,
2013-05-30 19:40:00,82.5,71.3,30.02,ENE,60,1.0,9.0,69,0.00,,---,0.00,VWS V14.01,2013-05-30 23:40:00,
2013-05-30 19:41:00,82.5,71.3,30.02,ENE,57,2.0,9.0,69,0.00,,---,0.00,VWS V14.01,2013-05-30 23:41:00,
2013-05-30 19:42:00,82.5,71.3,30.02,NE,42,5.0,7.0,69,0.00,,---,0.00,VWS V14.01,2013-05-30 23:42:00,
2013-05-30 19:43:00,82.5,71.3,30.02,East,79,2.0,7.0,69,0.00,,---,0.00,VWS V14.01,2013-05-30 23:43:00,
2013-05-30 19:46:00,82.5,71.7,30.02,ESE,112,1.0,9.0,70,0.00,,---,0.00,VWS V14.01,2013-05-30 23:46:00,
2013-05-30 19:47:00,82.5,71.7,30.02,SSE,166,2.0,5.0,70,0.00,,---,0.00,VWS V14.01,2013-05-30 23:47:00,
2013-05-30 19:48:00,82.4,71.6,30.02,ESE,107,3.0,5.0,70,0.00,,---,0.00,VWS V14.01,2013-05-30 23:48:00,
2013-05-30 19:50:00,82.4,71.6,30.02,ESE,109,2.0,6.0,70,0.00,,---,0.00,VWS V14.01,2013-05-30 23:50:00,
2013-05-30 19:52:00,82.3,71.5,30.02,SSW,196,2.0,2.0,70,0.00,,---,0.00,VWS V14.01,2013-05-30 23:52:00,
2013-05-30 19:54:00,82.2,71.4,30.02,East,92,1.0,2.0,70,0.00,,---,0.00,VWS V14.01,2013-05-30 23:54:00,
2013-05-30 19:55:00,82.1,71.8,30.02,ESE,109,3.0,5.0,71,0.00,,---,0.00,VWS V14.01,2013-05-30 23:55:00,
2013-05-30 19:57:00,82.0,71.7,30.02,ESE,123,1.0,2.0,71,0.00,,---,0.00,VWS V14.01,2013-05-30 23:57:00,
2013-05-30 19:59:00,81.9,71.6,30.02,ESE,123,0.0,2.0,71,0.00,,---,0.00,VWS V14.01,2013-05-30 23:59:00,
2013-05-30 20:00:00,81.8,71.5,30.02,SSE,148,1.0,5.0,71,0.00,,---,0.00,VWS V14.01,2013-05-31 00:00:00,
2013-05-30 20:03:00,81.7,71.8,30.02,ENE,66,1.0,4.0,72,0.00,,---,0.00,VWS V14.01,2013-05-31 00:03:00,
2013-05-30 20:04:00,81.6,71.7,30.02,ENE,76,3.0,4.0,72,0.00,,---,0.00,VWS V14.01,2013-05-31 00:04:00,
2013-05-30 20:05:00,81.6,71.7,30.02,East,84,1.0,4.0,72,0.00,,---,0.00,VWS V14.01,2013-05-31 00:05:00,
2013-05-30 20:06:00,81.6,71.7,30.02,East,80,1.0,5.0,72,0.00,,---,0.00,VWS V14.01,2013-05-31 00:06:00,
2013-05-30 20:09:00,81.5,71.6,30.02,East,81,1.0,3.0,72,0.00,,---,0.00,VWS V14.01,2013-05-31 00:09:00,
2013-05-30 20:11:00,81.4,71.5,30.02,ESE,115,1.0,3.0,72,0.00,,---,0.00,VWS V14.01,2013-05-31 00:11:00,
2013-05-30 20:12:00,81.4,71.5,30.02,East,87,1.0,3.0,72,0.00,,---,0.00,VWS V14.01,2013-05-31 00:12:00,
2013-05-30 20:13:00,81.3,71.4,30.03,East,92,2.0,7.0,72,0.00,,---,0.00,VWS V14.01,2013-05-31 00:13:00,
2013-05-30 20:14:00,81.3,71.4,30.03,NE,49,0.0,7.0,72,0.00,,---,0.00,VWS V14.01,2013-05-31 00:14:00,
2013-05-30 20:16:00,81.2,71.3,30.03,ESE,111,1.0,7.0,72,0.00,,---,0.00,VWS V14.01,2013-05-31 00:16:00,
2013-05-30 20:17:00,81.2,71.3,30.03,ENE,70,1.0,2.0,72,0.00,,---,0.00,VWS V14.01,2013-05-31 00:17:00,
2013-05-30 20:18:00,81.2,71.3,30.03,ESE,113,2.0,4.0,72,0.00,,---,0.00,VWS V14.01,2013-05-31 00:18:00,
2013-05-30 20:19:00,81.1,71.2,30.03,ESE,113,1.0,4.0,72,0.00,,---,0.00,VWS V14.01,2013-05-31 00:19:00,
2013-05-30 20:21:00,81.1,71.2,30.03,East,81,1.0,4.0,72,0.00,,---,0.00,VWS V14.01,2013-05-31 00:21:00,
2013-05-30 20:22:00,81.1,71.6,30.03,ESE,110,2.0,4.0,73,0.00,,---,0.00,VWS V14.01,2013-05-31 00:22:00,
2013-05-30 20:24:00,81.0,71.5,30.03,East,91,0.0,4.0,73,0.00,,---,0.00,VWS V14.01,2013-05-31 00:24:00,
2013-05-30 20:25:00,81.1,71.6,30.03,East,91,0.0,4.0,73,0.00,,---,0.00,VWS V14.01,2013-05-31 00:25:00,
2013-05-30 20:26:00,81.0,71.5,30.03,East,91,0.0,4.0,73,0.00,,---,0.00,VWS V14.01,2013-05-31 00:26:00,
2013-05-30 20:27:00,81.0,71.5,30.03,ENE,69,3.0,3.0,73,0.00,,---,0.00,VWS V14.01,2013-05-31 00:27:00,
2013-05-30 20:29:00,81.0,71.5,30.03,ENE,63,5.0,5.0,73,0.00,,---,0.00,VWS V14.01,2013-05-31 00:29:00,
2013-05-30 20:30:00,80.9,71.4,30.03,East,84,3.0,5.0,73,0.00,,---,0.00,VWS V14.01,2013-05-31 00:30:00,
2013-05-30 20:31:00,80.9,71.4,30.03,ENE,78,1.0,5.0,73,0.00,,---,0.00,VWS V14.01,2013-05-31 00:31:00,
2013-05-30 20:32:00,80.9,71.4,30.03,East,99,2.0,3.0,73,0.00,,---,0.00,VWS V14.01,2013-05-31 00:32:00,
2013-05-30 20:34:00,80.8,71.3,30.03,ENE,57,3.0,4.0,73,0.00,,---,0.00,VWS V14.01,2013-05-31 00:34:00,
2013-05-30 20:36:00,80.7,71.2,30.02,NE,51,1.0,3.0,73,0.00,,---,0.00,VWS V14.01,2013-05-31 00:36:00,
2013-05-30 20:37:00,80.7,71.2,30.02,NE,51,1.0,3.0,73,0.00,,---,0.00,VWS V14.01,2013-05-31 00:37:00,
2013-05-30 20:38:00,80.7,71.2,30.02,NNE,17,2.0,5.0,73,0.00,,---,0.00,VWS V14.01,2013-05-31 00:38:00,
2013-05-30 20:39:00,80.6,71.2,30.02,ESE,104,2.0,5.0,73,0.00,,---,0.00,VWS V14.01,2013-05-31 00:39:00,
2013-05-30 20:40:00,80.6,71.2,30.02,ESE,121,1.0,5.0,73,0.00,,---,0.00,VWS V14.01,2013-05-31 00:40:00,
2013-05-30 20:42:00,80.6,71.6,30.02,ENE,68,1.0,3.0,74,0.00,,---,0.00,VWS V14.01,2013-05-31 00:42:00,
2013-05-30 20:43:00,80.6,71.6,30.02,ENE,67,1.0,3.0,74,0.00,,---,0.00,VWS V14.01,2013-05-31 00:43:00,
2013-05-30 20:45:00,80.6,71.2,30.02,NNE,32,2.0,5.0,73,0.00,,---,0.00,VWS V14.01,2013-05-31 00:45:00,
2013-05-30 20:46:00,80.5,71.1,30.02,NE,34,2.0,5.0,73,0.00,,---,0.00,VWS V14.01,2013-05-31 00:46:00,
2013-05-30 20:48:00,80.5,71.1,30.02,East,98,2.0,5.0,73,0.00,,---,0.00,VWS V14.01,2013-05-31 00:48:00,
2013-05-30 20:50:00,80.5,71.1,30.02,East,83,2.0,6.0,73,0.00,,---,0.00,VWS V14.01,2013-05-31 00:50:00,
2013-05-30 20:51:00,80.4,71.0,30.02,East,83,1.0,6.0,73,0.00,,---,0.00,VWS V14.01,2013-05-31 00:51:00,
2013-05-30 20:56:00,80.4,70.1,30.02,ENE,70,4.0,7.0,71,0.00,,---,0.00,VWS V14.01,2013-05-31 00:56:00,
2013-05-30 20:58:00,80.5,69.8,30.02,South,173,9.0,11.0,70,0.00,,---,0.00,VWS V14.01,2013-05-31 00:58:00,
2013-05-30 21:02:00,80.6,69.9,30.02,East,94,6.0,9.0,70,0.00,,---,0.00,VWS V14.01,2013-05-31 01:02:00,
2013-05-30 21:03:00,80.7,70.0,30.03,ENE,76,3.0,9.0,70,0.00,,---,0.00,VWS V14.01,2013-05-31 01:03:00,
2013-05-30 21:04:00,80.7,70.0,30.03,East,80,2.0,9.0,70,0.00,,---,0.00,VWS V14.01,2013-05-31 01:04:00,
2013-05-30 21:07:00,80.8,70.5,30.03,East,86,2.0,5.0,71,0.00,,---,0.00,VWS V14.01,2013-05-31 01:07:00,
2013-05-30 21:09:00,80.9,70.6,30.03,East,88,5.0,7.0,71,0.00,,---,0.00,VWS V14.01,2013-05-31 01:09:00,
2013-05-30 21:10:00,80.9,70.6,30.03,NNE,16,4.0,7.0,71,0.00,,---,0.00,VWS V14.01,2013-05-31 01:10:00,
2013-05-30 21:12:00,80.9,70.6,30.03,NE,49,5.0,7.0,71,0.00,,---,0.00,VWS V14.01,2013-05-31 01:12:00,
2013-05-30 21:13:00,80.9,70.6,30.03,ENE,57,8.0,8.0,71,0.00,,---,0.00,VWS V14.01,2013-05-31 01:13:00,
2013-05-30 21:15:00,80.9,70.6,30.03,East,84,1.0,8.0,71,0.00,,---,0.00,VWS V14.01,2013-05-31 01:15:00,
2013-05-30 21:16:00,81.0,70.7,30.03,NE,51,4.0,8.0,71,0.00,,---,0.00,VWS V14.01,2013-05-31 01:16:00,
2013-05-30 21:17:00,81.0,70.7,30.03,NE,35,3.0,9.0,71,0.00,,---,0.00,VWS V14.01,2013-05-31 01:17:00,
2013-05-30 21:19:00,81.0,70.7,30.03,ENE,63,3.0,9.0,71,0.00,,---,0.00,VWS V14.01,2013-05-31 01:19:00,
2013-05-30 21:21:00,81.0,70.7,30.04,NE,38,3.0,9.0,71,0.00,,---,0.00,VWS V14.01,2013-05-31 01:21:00,
2013-05-30 21:22:00,81.0,70.7,30.03,East,84,3.0,6.0,71,0.00,,---,0.00,VWS V14.01,2013-05-31 01:22:00,
2013-05-30 21:25:00,81.0,71.1,30.03,NE,37,4.0,9.0,72,0.00,,---,0.00,VWS V14.01,2013-05-31 01:25:00,
2013-05-30 21:26:00,81.0,71.1,30.04,ESE,119,7.0,12.0,72,0.00,,---,0.00,VWS V14.01,2013-05-31 01:26:00,
2013-05-30 21:27:00,81.0,71.1,30.04,ESE,118,3.0,12.0,72,0.00,,---,0.00,VWS V14.01,2013-05-31 01:27:00,
2013-05-30 21:30:00,80.9,71.0,30.04,NNE,28,4.0,12.0,72,0.00,,---,0.00,VWS V14.01,2013-05-31 01:30:00,
2013-05-30 21:31:00,80.9,71.0,30.04,East,83,1.0,12.0,72,0.00,,---,0.00,VWS V14.01,2013-05-31 01:31:00,
2013-05-30 21:32:00,80.9,71.0,30.04,SE,131,4.0,5.0,72,0.00,,---,0.00,VWS V14.01,2013-05-31 01:32:00,
2013-05-30 21:33:00,80.9,71.0,30.04,SE,130,2.0,5.0,72,0.00,,---,0.00,VWS V14.01,2013-05-31 01:33:00,
2013-05-30 21:36:00,80.9,71.0,30.04,ENE,78,3.0,6.0,72,0.00,,---,0.00,VWS V14.01,2013-05-31 01:36:00,
2013-05-30 21:38:00,80.7,70.8,30.04,ENE,65,1.0,4.0,72,0.00,,---,0.00,VWS V14.01,2013-05-31 01:38:00,
2013-05-30 21:41:00,80.6,70.8,30.05,ESE,107,1.0,5.0,72,0.00,,---,0.00,VWS V14.01,2013-05-31 01:41:00,
2013-05-30 21:43:00,80.3,70.9,30.05,NE,53,1.0,5.0,73,0.00,,---,0.00,VWS V14.01,2013-05-31 01:43:00,
2013-05-30 21:44:00,80.2,70.8,30.05,SE,132,1.0,6.0,73,0.00,,---,0.00,VWS V14.01,2013-05-31 01:44:00,
2013-05-30 21:46:00,80.1,70.7,30.05,SE,132,0.0,6.0,73,0.00,,---,0.00,VWS V14.01,2013-05-31 01:46:00,
2013-05-30 21:47:00,79.9,70.9,30.05,ENE,75,1.0,2.0,74,0.00,,---,0.00,VWS V14.01,2013-05-31 01:47:00,
2013-05-30 21:49:00,79.8,70.8,30.05,ESE,107,2.0,2.0,74,0.00,,---,0.00,VWS V14.01,2013-05-31 01:49:00,
2013-05-30 21:51:00,79.6,71.0,30.05,ENE,64,3.0,3.0,75,0.00,,---,0.00,VWS V14.01,2013-05-31 01:51:00,
2013-05-30 21:53:00,79.4,70.8,30.05,ENE,69,0.0,3.0,75,0.00,,---,0.00,VWS V14.01,2013-05-31 01:53:00,
2013-05-30 21:55:00,79.2,70.6,30.05,East,96,2.0,5.0,75,0.00,,---,0.00,VWS V14.01,2013-05-31 01:55:00,
2013-05-30 21:56:00,79.1,70.9,30.05,East,91,1.0,1.0,76,0.00,,---,0.00,VWS V14.01,2013-05-31 01:56:00,
2013-05-30 21:57:00,79.1,70.9,30.05,East,91,0.0,1.0,76,0.00,,---,0.00,VWS V14.01,2013-05-31 01:57:00,
2013-05-30 21:58:00,79.0,70.8,30.05,East,88,2.0,5.0,76,0.00,,---,0.00,VWS V14.01,2013-05-31 01:58:00,
2013-05-30 22:00:00,78.8,70.6,30.05,ESE,102,2.0,7.0,76,0.00,,---,0.00,VWS V14.01,2013-05-31 02:00:00,
2013-05-30 22:01:00,78.8,70.6,30.05,ESE,102,1.0,7.0,76,0.00,,---,0.00,VWS V14.01,2013-05-31 02:01:00,
2013-05-30 22:02:00,78.7,70.5,30.05,ESE,105,3.0,3.0,76,0.00,,---,0.00,VWS V14.01,2013-05-31 02:02:00,
2013-05-30 22:03:00,78.7,70.5,30.05,East,87,2.0,4.0,76,0.00,,---,0.00,VWS V14.01,2013-05-31 02:03:00,
2013-05-30 22:05:00,78.6,70.4,30.05,ESE,112,2.0,4.0,76,0.00,,---,0.00,VWS V14.01,2013-05-31 02:05:00,
2013-05-30 22:06:00,78.5,70.3,30.05,ESE,110,1.0,4.0,76,0.00,,---,0.00,VWS V14.01,2013-05-31 02:06:00,
2013-05-30 22:08:00,78.4,70.6,30.05,ENE,76,2.0,7.0,77,0.00,,---,0.00,VWS V14.01,2013-05-31 02:08:00,
2013-05-30 22:09:00,78.4,70.6,30.05,ENE,63,2.0,7.0,77,0.00,,---,0.00,VWS V14.01,2013-05-31 02:09:00,
2013-05-30 22:10:00,78.4,70.6,30.05,NE,53,2.0,7.0,77,0.00,,---,0.00,VWS V14.01,2013-05-31 02:10:00,
2013-05-30 22:11:00,78.3,70.5,30.05,East,94,3.0,7.0,77,0.00,,---,0.00,VWS V14.01,2013-05-31 02:11:00,
2013-05-30 22:13:00,78.3,70.5,30.05,ENE,71,1.0,5.0,77,0.00,,---,0.00,VWS V14.01,2013-05-31 02:13:00,
2013-05-30 22:15:00,78.3,70.5,30.05,ENE,57,3.0,7.0,77,0.00,,---,0.00,VWS V14.01,2013-05-31 02:15:00,
2013-05-30 22:16:00,78.2,70.0,30.05,ENE,59,4.0,7.0,76,0.00,,---,0.00,VWS V14.01,2013-05-31 02:16:00,
2013-05-30 22:17:00,78.2,70.0,30.05,ENE,63,3.0,4.0,76,0.00,,---,0.00,VWS V14.01,2013-05-31 02:17:00,
2013-05-30 22:18:00,78.2,70.0,30.05,ESE,118,2.0,13.0,76,0.00,,---,0.00,VWS V14.01,2013-05-31 02:18:00,
2013-05-30 22:21:00,78.3,70.1,30.05,SE,135,3.0,13.0,76,0.00,,---,0.00,VWS V14.01,2013-05-31 02:21:00,
2013-05-30 22:22:00,78.3,70.1,30.05,East,85,3.0,4.0,76,0.00,,---,0.00,VWS V14.01,2013-05-31 02:22:00,
2013-05-30 22:23:00,78.3,70.1,30.05,East,80,2.0,5.0,76,0.00,,---,0.00,VWS V14.01,2013-05-31 02:23:00,
2013-05-30 22:26:00,78.4,70.2,30.05,ENE,64,5.0,5.0,76,0.00,,---,0.00,VWS V14.01,2013-05-31 02:26:00,
2013-05-30 22:27:00,78.5,70.3,30.05,ENE,60,3.0,5.0,76,0.00,,---,0.00,VWS V14.01,2013-05-31 02:27:00,
2013-05-30 22:29:00,78.5,70.3,30.05,NE,56,3.0,5.0,76,0.00,,---,0.00,VWS V14.01,2013-05-31 02:29:00,
2013-05-30 22:30:00,78.6,70.4,30.05,ESE,122,4.0,5.0,76,0.00,,---,0.00,VWS V14.01,2013-05-31 02:30:00,
2013-05-30 22:32:00,78.6,70.4,30.05,NE,44,3.0,5.0,76,0.00,,---,0.00,VWS V14.01,2013-05-31 02:32:00,
2013-05-30 22:33:00,78.7,70.5,30.05,NE,53,2.0,6.0,76,0.00,,---,0.00,VWS V14.01,2013-05-31 02:33:00,
2013-05-30 22:34:00,78.7,70.5,30.05,ENE,70,2.0,6.0,76,0.00,,---,0.00,VWS V14.01,2013-05-31 02:34:00,
2013-05-30 22:35:00,78.7,70.1,30.05,ESE,107,2.0,8.0,75,0.00,,---,0.00,VWS V14.01,2013-05-31 02:35:00,
2013-05-30 22:36:00,78.7,70.1,30.05,ESE,115,7.0,7.0,75,0.00,,---,0.00,VWS V14.01,2013-05-31 02:36:00,
2013-05-30 22:39:00,78.7,69.7,30.05,NNE,24,2.0,9.0,74,0.00,,---,0.00,VWS V14.01,2013-05-31 02:39:00,
2013-05-30 22:40:00,78.7,69.7,30.05,NE,36,4.0,9.0,74,0.00,,---,0.00,VWS V14.01,2013-05-31 02:40:00,
2013-05-30 22:42:00,78.8,69.8,30.05,East,83,3.0,5.0,74,0.00,,---,0.00,VWS V14.01,2013-05-31 02:42:00,
2013-05-30 22:45:00,78.8,69.8,30.06,NE,41,5.0,8.0,74,0.00,,---,0.00,VWS V14.01,2013-05-31 02:45:00,
2013-05-30 22:48:00,78.7,69.7,30.06,SE,127,2.0,5.0,74,0.00,,---,0.00,VWS V14.01,2013-05-31 02:48:00,
2013-05-30 22:49:00,78.7,69.7,30.06,ESE,121,3.0,5.0,74,0.00,,---,0.00,VWS V14.01,2013-05-31 02:49:00,
2013-05-30 22:50:00,78.7,69.7,30.06,NE,44,2.0,5.0,74,0.00,,---,0.00,VWS V14.01,2013-05-31 02:50:00,
2013-05-30 22:53:00,78.7,69.7,30.06,NE,50,3.0,7.0,74,0.00,,---,0.00,VWS V14.01,2013-05-31 02:53:00,
2013-05-30 22:54:00,78.7,69.7,30.06,NNE,21,5.0,7.0,74,0.00,,---,0.00,VWS V14.01,2013-05-31 02:54:00,
2013-05-30 22:55:00,78.6,69.6,30.06,ENE,78,3.0,7.0,74,0.00,,---,0.00,VWS V14.01,2013-05-31 02:55:00,
2013-05-30 22:56:00,78.6,69.6,30.06,NNE,27,3.0,7.0,74,0.00,,---,0.00,VWS V14.01,2013-05-31 02:56:00,
2013-05-30 22:59:00,78.6,69.6,30.06,ENE,58,2.0,5.0,74,0.00,,---,0.00,VWS V14.01,2013-05-31 02:59:00,
2013-05-30 23:00:00,78.6,69.6,30.07,ENE,67,2.0,8.0,74,0.00,,---,0.00,VWS V14.01,2013-05-31 03:00:00,
2013-05-30 23:02:00,78.6,69.6,30.07,ENE,65,2.0,3.0,74,0.00,,---,0.00,VWS V14.01,2013-05-31 03:02:00,
2013-05-30 23:04:00,78.6,69.6,30.07,NE,43,3.0,5.0,74,0.00,,---,0.00,VWS V14.01,2013-05-31 03:04:00,
2013-05-30 23:05:00,78.5,69.5,30.07,NNE,18,3.0,5.0,74,0.00,,---,0.00,VWS V14.01,2013-05-31 03:05:00,
2013-05-30 23:07:00,78.5,69.5,30.07,NE,49,3.0,5.0,74,0.00,,---,0.00,VWS V14.01,2013-05-31 03:07:00,
2013-05-30 23:10:00,78.5,69.9,30.07,ESE,104,3.0,6.0,75,0.00,,---,0.00,VWS V14.01,2013-05-31 03:10:00,
2013-05-30 23:11:00,78.4,69.8,30.07,East,80,3.0,6.0,75,0.00,,---,0.00,VWS V14.01,2013-05-31 03:11:00,
2013-05-30 23:12:00,78.4,69.8,30.07,ENE,73,4.0,7.0,75,0.00,,---,0.00,VWS V14.01,2013-05-31 03:12:00,
2013-05-30 23:13:00,78.4,69.8,30.07,NE,51,3.0,7.0,75,0.00,,---,0.00,VWS V14.01,2013-05-31 03:13:00,
2013-05-30 23:15:00,78.4,69.8,30.07,East,90,8.0,8.0,75,0.00,,---,0.00,VWS V14.01,2013-05-31 03:15:00,
2013-05-30 23:17:00,78.4,69.8,30.07,NE,54,3.0,5.0,75,0.00,,---,0.00,VWS V14.01,2013-05-31 03:17:00,
2013-05-30 23:18:00,78.4,69.8,30.07,ENE,62,1.0,5.0,75,0.00,,---,0.00,VWS V14.01,2013-05-31 03:18:00,
2013-05-30 23:20:00,78.4,69.8,30.07,East,80,3.0,5.0,75,0.00,,---,0.00,VWS V14.01,2013-05-31 03:20:00,
2013-05-30 23:21:00,78.4,69.8,30.07,ESE,103,2.0,5.0,75,0.00,,---,0.00,VWS V14.01,2013-05-31 03:21:00,
2013-05-30 23:22:00,78.3,70.1,30.07,NNE,25,5.0,6.0,76,0.00,,---,0.00,VWS V14.01,2013-05-31 03:22:00,
2013-05-30 23:25:00,78.3,70.1,30.07,ENE,58,3.0,7.0,76,0.00,,---,0.00,VWS V14.01,2013-05-31 03:25:00,
2013-05-30 23:26:00,78.3,70.1,30.07,ENE,67,3.0,3.0,76,0.00,,---,0.00,VWS V14.01,2013-05-31 03:26:00,
2013-05-30 23:27:00,78.3,70.1,30.07,ENE,67,2.0,3.0,76,0.00,,---,0.00,VWS V14.01,2013-05-31 03:27:00,
2013-05-30 23:28:00,78.3,70.1,30.07,ENE,62,3.0,5.0,76,0.00,,---,0.00,VWS V14.01,2013-05-31 03:28:00,
2013-05-30 23:30:00,78.2,70.0,30.07,ENE,66,3.0,7.0,76,0.00,,---,0.00,VWS V14.01,2013-05-31 03:30:00,
2013-05-30 23:33:00,78.1,69.9,30.07,ENE,64,2.0,6.0,76,0.00,,---,0.00,VWS V14.01,2013-05-31 03:33:00,
2013-05-30 23:34:00,78.1,69.9,30.07,SSE,157,3.0,6.0,76,0.00,,---,0.00,VWS V14.01,2013-05-31 03:34:00,
2013-05-30 23:37:00,78.0,69.8,30.07,East,93,3.0,7.0,76,0.00,,---,0.00,VWS V14.01,2013-05-31 03:37:00,
2013-05-30 23:38:00,78.0,69.8,30.07,ENE,57,3.0,9.0,76,0.00,,---,0.00,VWS V14.01,2013-05-31 03:38:00,
2013-05-30 23:39:00,78.0,69.8,30.07,East,82,3.0,9.0,76,0.00,,---,0.00,VWS V14.01,2013-05-31 03:39:00,
2013-05-30 23:40:00,78.0,69.8,30.07,NE,49,3.0,9.0,76,0.00,,---,0.00,VWS V14.01,2013-05-31 03:40:00,
2013-05-30 23:43:00,78.0,69.8,30.07,NE,34,3.0,9.0,76,0.00,,---,0.00,VWS V14.01,2013-05-31 03:43:00,
2013-05-30 23:44:00,78.0,69.8,30.07,NNE,20,3.0,9.0,76,0.00,,---,0.00,VWS V14.01,2013-05-31 03:44:00,
2013-05-30 23:46:00,77.9,69.7,30.07,NE,49,5.0,9.0,76,0.00,,---,0.00,VWS V14.01,2013-05-31 03:46:00,
2013-05-30 23:48:00,77.9,69.7,30.07,ENE,61,3.0,6.0,76,0.00,,---,0.00,VWS V14.01,2013-05-31 03:48:00,
2013-05-30 23:49:00,77.9,69.7,30.07,ENE,61,1.0,6.0,76,0.00,,---,0.00,VWS V14.01,2013-05-31 03:49:00,
2013-05-30 23:50:00,77.9,69.7,30.07,SSE,148,4.0,6.0,76,0.00,,---,0.00,VWS V14.01,2013-05-31 03:50:00,
2013-05-30 23:51:00,77.8,69.6,30.07,East,92,3.0,7.0,76,0.00,,---,0.00,VWS V14.01,2013-05-31 03:51:00,
2013-05-30 23:54:00,77.8,69.6,30.07,ENE,59,4.0,7.0,76,0.00,,---,0.00,VWS V14.01,2013-05-31 03:54:00,
2013-05-30 23:55:00,77.8,70.0,30.07,ENE,71,4.0,10.0,77,0.00,,---,0.00,VWS V14.01,2013-05-31 03:55:00,
2013-05-30 23:56:00,77.8,70.0,30.07,East,95,2.0,2.0,77,0.00,,---,0.00,VWS V14.01,2013-05-31 03:56:00,
2013-05-30 23:59:00,77.8,70.0,30.07,ENE,68,2.0,5.0,77,0.00,,---,0.00,VWS V14.01,2013-05-31 03:59:00,